GEFSSGP_850_meantemp_120.txt.gz
Temperature
14 15 15 16 16 16 18 21 22 22 22 22 22 22 22 22 21 18 16 16 17 17 17 17 17 16 16 17 17 17 17 17 17 17 17 17 17 17 17 17 16 16 16 16 16 16 16 16 15
14 14 15 16 16 17 19 20 21 21 20 20 21 21 21 21 19 17 16 16 16 17 17 17 16 16 16 16 17 17 17 17 17 17 17 17 17 17 17 16 16 16 16 16 15 15 15 15 15
14 14 16 16 17 18 20 21 21 20 20 20 20 20 20 19 17 16 16 16 16 16 16 16 16 16 16 16 16 16 17 17 17 17 17 17 17 17 16 16 16 16 16 15 15 15 15 15 16
13 14 16 16 17 19 20 19 19 20 19 19 20 20 18 17 16 15 15 16 16 16 16 16 16 16 16 16 16 16 16 16 16 16 16 16 16 16 16 16 16 16 16 15 15 15 15 16 16
13 15 15 16 17 19 19 19 19 19 19 19 19 19 17 16 15 15 15 16 16 16 16 16 16 16 16 16 16 16 16 16 16 16 16 16 16 16 16 16 16 16 16 15 15 15 15 16 16
14 15 15 16 17 19 19 18 19 19 19 19 18 18 16 15 15 15 15 15 15 15 16 16 16 16 16 16 16 16 16 16 16 16 16 16 16 16 16 16 16 16 16 15 15 15 16 16 16
14 14 15 17 18 18 18 18 18 18 18 18 18 18 16 15 15 15 15 15 15 15 15 15 15 16 16 16 16 16 16 16 16 16 16 16 16 16 16 16 15 15 15 15 15 15 16 16 15
14 14 16 17 17 17 17 17 17 17 17 17 17 17 15 14 14 14 14 14 15 15 15 15 15 15 15 15 16 16 16 16 16 16 16 16 15 15 15 15 15 15 15 15 15 15 15 15 15
13 13 14 16 17 16 16 16 16 15 15 16 15 15 14 14 14 14 14 14 14 14 15 15 15 15 15 15 15 15 16 16 16 16 16 16 15 15 15 15 15 15 15 15 15 15 15 15 15
13 12 14 15 15 15 15 15 15 15 15 15 15 14 14 14 13 13 13 14 14 14 14 14 15 15 15 15 15 15 15 15 16 15 15 15 15 15 15 15 15 15 15 15 15 15 15 15 15
13 13 14 14 13 14 14 14 14 14 14 15 14 14 13 13 13 13 13 13 13 13 14 14 14 15 15 15 15 15 15 15 15 15 15 15 15 15 15 15 15 15 15 15 15 15 15 15 15
13 13 13 13 12 13 13 13 13 13 13 13 13 13 12 12 12 12 12 12 12 13 13 14 14 14 14 14 14 15 15 15 15 15 15 15 15 15 15 15 15 15 15 15 15 15 15 15 15
12 12 12 11 11 11 12 12 12 13 13 13 12 12 12 12 12 12 11 11 12 12 12 13 13 14 14 14 14 14 14 14 15 15 15 15 15 15 15 15 15 15 15 15 15 15 15 15 14
12 12 11 11 11 11 12 12 12 12 12 12 12 12 12 11 11 11 11 11 11 11 11 12 12 13 13 14 14 14 14 14 14 14 14 14 14 14 14 14 14 15 15 15 15 15 14 14 14
11 11 11 11 11 11 11 11 12 12 12 12 12 12 12 11 11 11 11 10 10 11 11 11 12 12 12 13 13 13 13 14 14 14 14 14 14 14 14 14 14 14 15 14 14 14 14 14 14
11 10 10 11 12 11 10 11 12 12 12 12 12 12 12 11 11 11 10 10 10 10 11 11 11 11 12 12 12 13 13 13 13 13 14 14 14 14 14 14 14 14 14 14 14 14 14 14 14
10 10 11 11 11 11 11 11 12 12 12 12 12 12 11 11 11 10 10 10 10 10 10 10 11 11 11 11 12 12 12 13 13 13 13 13 13 13 13 14 14 14 14 14 14 14 14 14 14
9 11 11 11 11 11 11 11 12 12 12 12 12 11 11 10 10 10 9 9 9 9 9 10 10 10 11 11 11 11 12 12 12 12 13 13 13 13 13 13 13 13 13 13 14 14 13 13 13
10 11 11 11 11 11 10 11 12 12 12 11 11 10 10 10 9 9 9 8 8 9 9 9 9 10 10 10 10 11 11 11 12 12 12 12 12 13 13 13 13 13 13 13 13 13 13 13 13
10 10 10 10 11 11 10 10 11 12 11 11 10 10 9 9 8 8 8 8 8 8 8 8 9 9 9 9 9 10 10 10 11 11 11 12 12 12 12 12 13 13 13 13 13 13 13 13 12
10 9 9 9 10 10 10 10 11 11 11 10 10 9 9 8 8 7 7 7 7 7 8 8 8 8 9 9 9 9 9 10 10 10 11 11 12 12 12 12 12 12 12 12 13 13 12 12 12
9 10 10 9 8 9 10 8 10 10 10 10 10 9 8 7 7 7 6 6 7 7 7 7 8 8 8 8 8 8 8 9 9 9 10 11 11 11 11 11 12 12 12 12 12 12 12 12 12
9 9 9 9 8 8 9 8 9 10 9 9 9 8 7 7 6 6 6 6 6 6 7 7 7 7 8 7 8 8 8 8 8 9 9 10 10 11 11 11 11 11 11 11 12 12 12 12 12
9 9 9 9 8 8 9 8 8 9 9 9 9 8 7 6 6 5 5 5 6 6 6 6 7 7 7 7 7 7 7 8 8 8 9 9 10 10 10 10 10 11 11 11 11 11 11 11 11
8 8 8 8 7 8 10 9 8 9 9 8 8 7 7 6 5 5 5 5 5 5 6 6 6 6 7 7 7 7 7 7 7 8 8 8 9 9 9 10 10 10 10 11 11 11 11 11 11
9 8 7 8 8 9 9 8 8 9 9 8 7 7 6 6 5 5 4 4 4 5 5 6 6 6 6 6 6 6 7 7 7 7 7 8 8 8 9 9 9 9 10 10 10 10 11 11 11
9 8 9 8 8 8 9 9 9 9 8 8 7 7 6 6 5 5 4 4 4 4 4 5 5 5 5 6 6 6 6 6 6 7 7 7 7 8 8 8 9 9 9 9 9 10 10 10 10
9 9 8 7 8 8 9 9 8 7 7 8 7 7 6 6 5 4 4 4 4 4 4 4 4 4 5 5 5 5 6 6 6 6 6 6 7 7 7 8 8 8 8 8 9 9 9 9 9
8 8 8 8 8 8 8 8 9 8 8 8 7 7 6 5 5 4 4 4 4 4 4 4 4 4 4 4 5 5 5 5 5 6 6 6 6 7 7 7 7 7 7 8 8 8 8 8 8
9 9 8 7 8 8 7 7 9 8 8 8 8 7 6 6 5 4 4 4 4 3 3 3 4 4 4 4 4 4 4 5 5 5 5 5 6 6 6 6 6 7 7 7 7 7 7 7 8

GEFSSGP_850_meantemp_126.txt.gz
Temperature
13 14 14 15 12 11 12 14 15 17 17 18 18 18 16 15 16 15 15 15 16 16 16 16 16 17 17 17 17 17 17 17 17 17 17 17 17 17 17 17 17 16 16 16 16 16 16 15 15
13 14 14 14 11 11 12 14 15 16 18 19 18 17 16 15 15 15 15 15 16 16 16 16 16 16 16 17 17 17 17 17 17 17 17 17 17 17 17 16 16 16 16 16 16 16 15 15 15
13 14 14 10 11 11 14 14 15 16 18 18 17 16 15 15 15 15 15 15 16 16 16 16 16 16 16 16 16 17 17 17 17 17 17 17 17 17 16 16 16 16 16 16 16 16 15 15 15
13 14 13 10 12 13 14 15 15 16 18 18 17 14 14 14 14 14 15 15 16 16 16 16 16 16 16 16 16 16 16 16 16 17 17 16 16 16 16 16 16 16 16 16 16 15 15 15 15
13 13 10 10 12 13 14 15 16 16 16 16 16 13 13 13 14 14 15 15 15 16 16 16 16 16 16 16 16 16 16 16 16 16 16 16 16 16 16 16 16 16 16 16 16 15 15 15 15
12 10 9 10 12 13 14 16 16 15 15 16 15 13 12 13 14 14 15 15 15 15 15 15 15 15 16 16 16 16 16 16 16 16 16 16 16 16 16 16 16 16 16 16 15 16 15 15 15
11 9 10 11 11 13 14 15 14 13 14 15 15 12 12 13 13 14 14 15 15 15 15 15 15 15 15 15 16 16 16 16 16 16 16 16 16 16 16 16 16 16 16 15 15 15 15 15 15
12 9 11 11 12 13 14 14 14 14 14 15 15 13 12 13 13 14 14 14 15 15 15 15 15 15 15 15 15 15 15 15 16 16 16 16 15 15 15 15 15 15 15 15 15 15 15 15 15
12 9 10 11 11 12 13 13 14 14 14 14 13 13 13 13 13 14 14 14 14 14 15 15 15 15 15 15 15 15 15 15 15 15 15 15 15 15 15 15 15 15 15 15 15 15 15 15 15
11 8 10 11 11 11 12 12 13 13 12 12 12 13 13 13 13 13 14 14 14 14 14 14 15 15 15 15 15 15 15 15 15 15 15 15 15 15 15 15 15 15 15 15 15 15 15 15 15
10 9 10 10 11 12 12 12 12 12 11 12 12 12 12 13 13 13 13 13 13 13 13 14 14 14 14 14 15 15 14 15 15 15 15 15 15 15 15 15 15 15 15 15 15 15 15 15 15
9 10 10 10 11 11 11 11 11 11 11 12 12 12 12 12 12 12 12 12 12 13 13 13 13 13 14 14 14 14 14 14 14 14 14 14 15 15 15 15 15 15 15 15 15 15 15 15 15
9 9 10 10 11 11 11 11 11 11 12 12 12 12 12 12 12 12 12 12 12 12 12 12 13 13 13 13 14 14 14 14 14 14 14 14 14 14 14 14 14 14 14 14 15 15 15 15 15
9 9 10 10 10 10 10 10 10 11 12 12 12 11 11 11 11 11 11 11 11 11 12 12 12 12 12 13 13 13 14 14 14 14 14 14 14 14 14 14 14 14 14 14 14 14 15 15 15
9 8 9 9 10 10 10 9 9 11 11 11 11 11 11 11 11 11 10 10 11 11 11 11 11 12 12 12 12 13 13 13 13 13 13 14 14 14 14 14 14 14 14 14 14 14 14 14 14
8 7 7 9 9 9 9 9 9 11 11 10 10 10 10 10 10 10 10 10 10 10 10 11 11 11 11 11 12 12 12 12 13 13 13 13 13 13 13 13 14 14 14 14 14 14 14 14 14
7 7 7 8 9 9 9 8 9 10 10 10 10 10 10 10 10 9 9 9 10 10 10 10 10 11 11 11 11 11 12 12 12 12 13 13 13 13 13 13 13 13 13 13 13 13 13 14 14
6 7 7 8 9 9 8 8 8 9 9 9 9 9 9 9 9 9 9 9 9 9 9 9 10 10 10 11 11 11 11 11 11 12 12 12 12 12 13 13 13 13 13 13 13 13 13 13 13
7 7 7 8 9 9 8 7 8 9 9 8 8 8 8 8 8 8 8 8 9 9 9 9 9 9 10 10 10 11 11 11 11 11 11 11 12 12 12 12 12 12 13 13 13 13 13 13 13
7 7 7 8 9 8 8 7 8 8 8 8 8 8 8 8 8 8 8 8 8 8 8 8 8 9 9 9 9 9 10 10 10 10 11 11 11 11 11 11 12 12 12 12 12 12 12 12 12
7 7 7 7 8 8 7 7 7 8 8 8 8 7 7 7 7 7 7 7 7 7 7 7 7 8 8 8 8 9 9 9 10 10 10 10 10 10 11 11 11 11 11 11 12 12 12 12 12
7 8 8 7 6 6 7 6 7 7 7 6 7 7 7 7 7 6 6 7 7 7 7 7 7 7 7 8 8 8 8 8 9 9 9 9 10 10 10 10 10 11 11 11 11 11 11 11 11
7 8 7 7 6 6 6 6 6 7 6 6 6 6 7 6 6 6 6 6 6 6 6 6 7 7 7 7 7 8 8 8 8 8 8 9 9 9 9 9 10 10 10 10 10 10 10 11 10
8 7 7 6 5 6 6 5 6 6 6 6 6 6 6 6 6 6 6 6 6 6 6 6 6 7 7 7 7 7 7 7 7 8 8 8 8 9 9 9 9 9 9 9 10 10 10 10 10
7 5 5 5 5 5 6 6 6 6 6 6 6 6 6 6 6 6 5 5 5 6 6 6 6 6 6 7 7 6 7 7 7 7 7 7 7 8 8 8 8 8 9 9 9 9 9 9 9
7 6 5 6 6 5 6 6 6 7 7 7 7 7 6 6 6 5 5 5 5 5 5 5 6 6 6 6 6 6 6 6 6 6 6 7 7 7 7 7 8 8 8 8 8 9 9 9 9
7 6 6 5 5 5 5 5 6 6 6 6 6 6 6 6 6 5 5 5 5 5 5 5 5 5 5 6 6 6 6 6 6 6 6 6 6 6 6 7 7 7 8 8 8 8 8 8 8
7 6 5 5 6 6 5 5 5 6 6 6 5 6 6 6 5 5 5 5 5 5 4 4 5 5 5 5 5 5 5 5 5 6 6 6 6 6 6 6 7 7 7 7 7 7 7 7 8
6 6 6 5 5 5 5 5 6 6 6 6 6 7 7 6 6 5 5 5 5 4 4 4 4 4 4 4 5 5 5 5 5 5 5 5 5 5 6 6 6 6 6 6 7 7 7 7 7
6 6 5 5 5 4 4 5 7 6 6 6 7 7 7 6 6 6 5 5 5 4 4 4 4 4 4 4 4 4 4 4 4 4 4 5 5 5 5 5 5 5 5 6 6 6 6 6 6

GEFSSGP_850_meantemp_132.txt.gz
Temperature
12 13 14 15 12 10 12 12 12 13 13 15 15 15 14 14 15 15 14 15 15 16 16 16 16 16 16 16 16 16 17 17 17 17 17 17 17 17 16 16 16 16 16 16 16 16 15 15 15
12 13 14 14 10 10 11 12 13 14 14 15 15 14 13 13 14 14 14 15 15 15 16 16 16 16 16 16 16 16 16 16 17 17 17 17 17 16 16 16 16 16 16 16 16 15 15 15 15
12 13 13 9 10 11 13 12 12 14 15 15 14 13 13 13 13 14 14 15 15 15 15 15 15 16 16 16 16 16 16 16 16 16 16 16 16 16 16 16 16 16 16 16 16 15 15 15 15
12 13 12 9 11 11 12 13 12 13 14 14 13 12 12 13 13 13 14 15 15 15 15 15 15 16 16 16 16 16 16 16 16 16 16 16 16 16 16 16 16 16 16 16 15 15 15 15 15
12 12 9 9 10 11 11 12 13 13 13 13 12 11 12 12 13 13 14 14 15 15 15 15 15 15 15 16 16 16 16 16 16 16 16 16 16 16 16 16 16 16 16 15 15 15 15 15 15
12 9 9 9 10 11 11 12 13 12 12 13 12 11 11 12 13 13 14 14 14 15 15 15 15 15 15 15 15 15 15 15 16 16 16 16 16 16 16 16 16 15 15 15 15 15 15 15 15
10 8 9 9 10 12 12 12 12 11 11 12 13 11 11 12 13 13 14 14 14 14 15 15 15 15 15 15 15 15 15 15 15 15 15 15 15 15 15 15 15 15 15 15 15 15 15 15 15
11 8 8 8 10 11 12 12 12 12 11 12 13 11 11 12 12 13 13 14 14 14 14 14 15 15 15 15 15 15 15 15 15 15 15 15 15 15 15 15 15 15 15 15 15 15 15 15 15
11 8 8 9 10 11 11 11 12 12 12 11 12 12 12 12 12 13 13 13 14 14 14 14 14 14 15 15 15 15 15 15 15 15 15 15 15 15 15 15 15 15 15 15 15 15 15 15 15
10 8 9 9 10 10 10 11 11 11 10 10 11 11 12 12 12 13 13 13 13 13 14 14 14 14 14 14 14 14 14 15 15 15 15 15 15 15 15 15 15 15 15 15 15 15 15 15 15
9 8 9 9 10 10 10 10 11 11 10 10 10 11 11 12 12 12 12 12 13 13 13 13 13 14 14 14 14 14 14 14 14 14 14 14 14 14 14 14 14 14 14 14 14 14 14 14 14
8 8 9 9 10 10 10 10 10 10 10 11 11 11 11 12 12 12 12 12 12 12 12 13 13 13 13 14 14 14 14 14 14 14 14 14 14 14 14 14 14 14 14 14 14 14 14 14 14
8 8 9 9 10 10 10 9 9 9 10 10 11 11 11 11 11 11 11 11 12 12 12 12 12 13 13 13 13 13 13 14 14 14 14 14 14 14 14 14 14 14 14 14 14 14 14 14 14
7 8 8 9 9 9 9 9 9 9 10 10 10 10 10 11 11 11 11 11 11 12 12 12 12 12 12 13 13 13 13 13 13 13 13 13 13 13 13 14 14 14 14 14 14 14 14 14 14
8 8 8 8 9 9 9 8 8 9 9 10 10 10 10 10 10 10 10 10 11 11 11 11 12 12 12 12 12 12 12 13 13 13 13 13 13 13 13 13 13 13 13 13 13 13 13 13 13
7 7 7 8 8 9 9 8 8 9 9 9 9 9 9 9 9 9 10 10 10 10 11 11 11 11 11 11 11 12 12 12 12 12 12 12 12 12 12 12 13 13 13 13 13 13 13 13 13
6 6 7 8 8 8 8 8 8 8 9 8 8 9 9 9 9 9 9 9 9 9 10 10 10 11 11 11 11 11 11 11 11 12 12 12 12 12 12 12 12 12 12 12 12 13 12 13 13
6 6 7 7 7 7 7 7 7 8 8 7 8 8 8 8 9 9 9 9 9 9 9 9 10 10 10 10 11 11 11 11 11 11 11 11 11 11 11 11 11 11 12 12 12 12 12 12 12
6 6 7 7 7 7 7 6 6 7 7 7 7 7 8 8 8 8 8 8 9 9 9 9 9 9 10 10 10 10 10 11 11 11 11 11 11 11 11 11 11 11 11 11 11 11 11 12 11
6 6 6 7 7 7 6 6 6 6 6 7 7 7 7 8 8 8 8 8 8 8 8 9 9 9 9 9 9 9 9 10 10 10 10 10 10 10 10 10 10 10 10 11 10 11 11 11 11
6 6 6 7 6 6 6 6 7 6 6 6 7 7 7 7 8 8 8 8 8 8 8 8 8 8 8 8 8 9 9 9 9 10 10 10 10 10 10 10 10 10 10 10 10 10 10 10 10
6 6 7 6 6 5 6 5 6 6 5 5 6 7 7 7 7 7 7 7 7 7 7 7 7 7 8 8 8 8 8 8 9 9 9 9 9 9 9 9 9 9 9 10 10 10 9 9 9
6 6 6 6 5 5 5 5 5 6 6 6 6 7 7 7 7 7 7 7 7 7 7 7 7 7 7 7 7 7 7 8 8 8 8 8 8 8 9 9 9 9 9 9 9 9 9 9 9
6 6 5 4 4 6 6 5 5 5 6 6 6 7 7 7 7 7 7 6 6 6 6 6 6 7 7 7 7 7 7 7 7 7 8 8 8 8 8 8 8 8 8 8 8 8 8 8 8
6 5 4 5 4 5 5 4 5 5 5 6 6 7 7 7 7 7 6 6 6 6 6 6 6 6 6 6 6 6 6 6 6 6 7 7 7 7 7 7 7 8 8 8 8 8 8 8 8
6 5 5 5 5 4 4 4 5 6 6 6 7 7 7 7 7 7 6 6 6 6 6 6 6 6 6 6 6 6 5 5 6 6 6 6 6 6 7 7 7 7 7 7 7 7 7 7 7
6 5 5 4 4 4 4 4 5 5 5 5 6 6 7 7 7 7 6 6 6 6 5 5 5 5 5 5 5 5 5 5 5 5 5 5 5 6 6 6 6 6 7 7 7 7 7 7 7
6 5 4 4 5 5 5 4 4 6 6 5 5 6 7 7 7 7 6 6 6 6 5 5 5 5 5 5 5 5 5 5 5 5 5 5 5 5 5 5 6 6 6 6 6 6 6 6 6
5 5 4 4 4 4 5 5 5 5 6 5 5 6 7 7 7 7 6 6 6 6 5 5 5 5 5 5 5 5 5 4 4 4 4 5 5 5 5 5 5 5 5 5 5 5 5 5 5
5 5 4 4 4 3 3 5 6 5 5 5 6 7 7 7 7 7 6 6 6 6 5 5 5 5 5 5 4 4 4 4 4 4 4 4 4 4 4 5 5 5 5 4 4 4 4 5 4

GEFSSGP_850_meantemp_138.txt.gz
Temperature
12 13 14 15 18 19 20 21 20 19 19 18 19 20 21 21 21 19 14 14 15 15 16 16 16 16 16 16 16 16 16 16 16 16 17 17 16 16 16 16 16 16 16 16 16 16 15 15 15
12 13 14 16 19 20 20 20 19 19 18 16 17 18 19 17 15 14 14 14 15 15 15 16 16 16 16 16 16 16 16 16 16 16 17 16 16 16 16 16 16 16 16 16 16 16 16 15 15
12 13 15 18 18 21 21 19 19 17 16 16 17 17 17 16 14 13 13 14 14 15 15 15 16 16 16 16 16 16 16 16 16 16 16 16 16 16 16 16 16 16 16 16 16 16 16 15 15
12 13 15 18 18 19 19 18 18 17 16 16 17 16 14 12 12 13 14 14 14 15 15 15 15 15 16 16 16 16 16 16 16 16 16 16 16 16 16 16 16 16 16 16 16 16 15 15 15
12 15 16 17 17 17 17 17 17 18 17 16 16 16 14 12 12 13 13 14 14 15 15 15 15 15 15 15 15 16 16 16 16 16 16 16 16 16 16 16 16 16 16 16 16 15 15 15 15
13 15 17 17 17 16 16 16 16 17 16 15 16 16 13 12 12 13 13 14 14 14 15 15 15 15 15 15 15 15 15 15 15 16 16 15 16 16 15 16 16 16 16 15 15 15 15 15 15
13 15 16 17 16 16 16 15 16 17 17 15 15 15 13 12 12 13 13 14 14 14 14 14 14 15 15 15 15 15 15 15 15 15 15 15 15 15 15 15 15 15 15 15 15 15 15 15 15
12 15 15 16 16 16 15 14 14 16 15 13 14 15 13 11 12 12 13 13 14 14 14 14 14 14 14 15 15 15 15 15 15 15 15 15 15 15 15 15 15 15 15 15 15 15 15 15 15
11 15 15 15 16 15 14 14 13 12 13 12 11 12 11 12 12 12 13 13 13 14 14 14 14 14 14 14 14 15 15 15 15 15 15 15 15 15 15 15 15 15 15 15 15 15 15 15 15
12 14 14 14 15 15 14 14 13 13 13 12 11 10 11 11 12 12 12 12 13 13 13 14 14 14 14 14 14 14 14 14 14 14 15 15 15 15 15 15 15 15 14 14 14 14 14 14 14
12 12 12 12 12 13 13 13 12 15 14 13 12 11 11 11 12 12 12 12 12 13 13 13 13 14 14 14 14 14 14 14 14 14 14 14 14 14 14 14 14 14 14 14 14 14 14 14 14
11 11 11 11 11 12 12 12 12 12 12 11 10 10 11 11 11 11 12 12 12 12 13 13 13 13 13 14 14 14 14 14 14 14 14 14 14 14 14 14 14 14 14 14 14 14 14 14 14
11 10 10 10 10 10 11 11 11 10 10 10 10 10 10 10 11 11 11 11 12 12 12 12 13 13 13 13 13 13 13 14 14 14 14 14 14 14 14 14 14 14 14 14 14 14 14 14 13
11 11 10 10 10 10 11 11 11 10 9 9 9 9 10 10 10 10 11 11 11 11 12 12 12 12 13 13 13 13 13 13 13 13 13 13 13 13 13 13 13 13 13 13 13 13 13 13 13
10 12 11 11 11 10 12 11 11 10 9 9 9 9 9 9 10 10 10 11 11 11 11 11 12 12 12 12 12 12 12 12 12 13 13 13 13 13 13 13 13 13 13 13 13 13 13 13 13
12 12 12 11 11 10 12 12 11 9 10 10 10 9 9 9 9 10 10 10 10 11 11 11 11 11 12 12 12 12 12 12 12 12 12 12 12 12 12 12 12 12 12 12 12 12 12 12 12
12 12 12 11 10 11 12 12 11 9 10 10 10 9 9 9 9 9 10 10 10 10 10 10 11 11 11 11 11 11 11 11 11 11 11 11 12 12 11 11 11 11 11 11 12 11 12 12 12
12 12 11 11 10 11 11 11 11 10 10 10 10 10 9 9 8 9 9 9 9 9 10 10 10 10 10 10 11 11 10 10 11 11 11 11 11 11 11 11 11 11 11 11 11 11 11 11 11
12 12 11 10 10 11 11 11 11 10 10 10 10 10 9 9 8 8 9 9 9 9 9 9 9 10 10 10 10 10 10 10 10 10 10 10 10 10 10 10 10 10 10 10 10 10 10 10 10
12 11 11 10 10 11 11 11 11 11 10 10 10 10 9 9 8 8 8 8 8 9 9 9 9 9 9 9 9 9 9 9 9 9 10 10 10 10 10 10 10 10 10 10 10 10 10 10 10
10 11 11 10 10 10 11 12 12 11 9 9 9 9 9 8 8 8 8 8 8 8 8 8 8 9 9 9 9 9 9 9 9 9 9 9 9 9 9 9 9 9 9 9 9 9 9 9 9
10 9 10 10 11 11 11 12 14 12 11 10 9 9 9 8 8 8 8 8 8 8 8 8 8 8 8 8 8 8 8 8 8 8 8 8 9 9 9 9 9 9 9 9 9 9 8 8 8
9 9 9 10 10 11 11 11 14 11 11 12 11 9 9 8 8 8 8 8 8 8 8 8 8 8 8 8 7 7 7 7 7 8 8 8 8 8 8 8 8 8 8 8 8 8 8 8 8
8 9 9 10 10 10 10 10 12 13 12 12 11 10 8 8 7 8 8 8 8 7 7 7 7 7 7 7 7 7 7 7 7 7 7 7 8 8 7 8 8 7 7 7 8 8 8 8 7
9 10 10 10 11 11 9 9 11 12 11 11 11 10 8 8 7 7 7 7 7 7 7 7 7 7 7 7 7 7 6 6 6 6 6 7 7 7 7 7 7 7 7 7 7 7 7 7 7
9 9 10 11 11 12 8 9 12 11 10 9 8 8 8 8 7 7 7 7 7 7 7 7 7 6 6 6 6 6 6 6 6 6 6 6 6 6 6 6 6 7 7 7 7 7 7 6 6
9 9 9 9 8 9 11 10 11 10 10 9 9 8 8 7 7 7 7 7 7 7 7 7 6 6 6 6 6 6 6 5 5 5 5 5 5 6 6 6 6 6 6 6 6 6 6 6 6
8 8 8 9 9 11 11 11 11 11 11 10 10 9 8 7 7 7 7 7 7 7 7 6 6 6 6 6 6 6 5 5 5 5 5 5 5 5 5 5 5 5 6 6 6 6 6 6 5
8 8 8 9 9 10 11 12 11 11 10 10 10 9 8 8 7 7 7 7 7 7 7 6 6 6 6 6 6 5 5 5 5 5 5 5 4 4 4 5 5 5 5 5 5 5 5 5 5
8 8 8 9 8 8 9 11 11 10 9 9 9 8 8 8 8 7 7 7 7 7 6 6 6 6 6 6 5 5 5 5 5 4 4 4 4 4 4 4 4 4 4 4 4 4 4 4 4

GEFSSGP_850_meantemp_144.txt.gz
Temperature
14 14 15 16 16 16 18 20 22 23 23 23 23 23 21 20 20 17 16 16 16 16 16 16 17 17 16 16 16 16 17 17 17 17 17 16 16 16 16 16 16 16 16 16 16 16 16 16 15
13 14 15 16 16 17 19 20 22 23 22 22 22 22 20 18 16 15 15 15 15 16 16 16 16 16 16 16 16 16 16 16 16 16 16 16 16 16 16 16 16 16 16 16 16 16 15 15 15
13 14 15 16 16 18 20 21 21 21 21 21 21 20 19 17 16 15 15 15 15 15 16 16 16 16 16 16 16 16 16 16 16 16 16 16 16 16 16 16 16 16 16 16 16 16 16 15 15
13 14 15 16 17 19 21 21 21 20 20 21 20 18 16 15 14 14 14 15 15 15 15 16 16 16 16 16 16 16 16 16 16 16 16 16 16 16 16 16 16 16 16 16 16 16 16 15 15
12 14 14 15 17 20 21 21 20 19 19 20 19 17 14 14 14 14 14 15 15 15 15 15 15 16 16 16 16 16 16 16 16 16 16 16 16 16 16 16 16 16 16 16 16 15 15 15 15
13 14 14 15 17 19 20 20 20 20 20 20 18 16 13 13 13 14 14 14 14 15 15 15 15 15 15 15 16 16 16 16 16 16 16 16 16 16 16 16 16 16 16 15 15 15 15 15 15
13 14 15 16 17 18 19 20 20 19 19 19 18 16 13 13 13 13 14 14 14 14 14 15 15 15 15 15 15 15 15 15 15 15 15 15 15 15 15 15 15 16 15 15 15 15 15 15 15
13 14 15 16 17 17 19 19 19 19 18 17 17 15 13 13 13 13 13 14 14 14 14 14 15 15 15 15 15 15 15 15 15 15 15 15 15 15 15 15 15 15 15 15 15 15 15 15 15
12 13 14 16 16 16 18 17 17 17 16 15 14 15 13 13 13 13 13 13 13 14 14 14 14 15 15 15 15 15 15 15 15 15 15 15 15 15 15 15 15 15 15 15 15 15 15 15 15
12 12 14 15 16 16 17 16 16 16 15 14 13 13 13 13 13 13 13 13 13 13 14 14 14 14 14 14 14 15 15 15 15 15 14 14 14 14 14 14 15 15 15 15 15 15 15 15 15
13 13 13 14 15 16 16 16 16 16 15 14 13 12 12 12 12 12 12 13 13 13 13 14 14 14 14 14 14 14 14 14 14 14 14 14 14 14 14 14 14 14 14 14 14 14 14 14 14
12 13 13 13 14 15 15 15 15 15 15 14 13 12 12 12 12 12 12 12 12 13 13 13 14 14 14 14 14 14 14 14 14 14 14 14 14 14 14 14 14 14 14 14 14 14 14 14 14
12 12 12 13 13 14 14 14 14 13 13 13 12 12 12 11 11 11 12 12 12 12 13 13 13 13 13 13 14 13 13 13 13 13 13 13 13 13 13 13 13 13 13 13 13 13 13 13 13
12 12 12 13 13 13 14 13 13 13 12 12 12 12 11 11 11 11 11 11 11 12 12 12 13 13 13 13 13 13 13 13 13 13 13 13 13 13 13 13 13 13 13 13 13 13 13 13 13
12 12 12 13 13 13 13 12 12 12 12 12 12 11 11 11 11 11 11 11 11 11 12 12 12 13 13 13 13 13 13 12 12 12 12 12 13 13 13 12 12 12 12 12 12 12 12 12 13
13 12 11 12 13 13 13 11 12 12 12 12 12 11 11 10 10 10 10 11 11 11 11 12 12 12 12 12 12 12 12 12 12 12 12 12 12 12 12 12 12 12 12 12 12 12 12 12 12
12 12 11 12 13 13 13 12 12 13 13 13 12 12 11 10 10 10 10 10 11 11 11 11 11 11 12 12 12 12 12 11 11 11 11 11 11 11 11 12 12 12 11 11 11 11 11 11 11
11 12 12 12 13 13 12 12 12 12 13 13 13 12 12 11 10 10 10 10 10 10 10 11 11 11 11 11 11 11 11 11 11 11 11 11 11 11 11 11 11 11 11 11 11 11 11 11 11
13 13 12 12 13 13 12 12 12 13 13 13 13 13 12 11 10 10 10 10 10 10 10 10 10 11 11 11 11 11 11 10 10 10 10 10 10 10 10 10 10 10 10 10 10 10 10 10 10
13 12 12 12 13 13 12 12 12 12 12 13 13 13 12 11 11 10 9 9 9 10 10 10 10 10 10 10 10 10 10 10 9 9 9 9 10 10 10 10 10 10 9 9 9 9 9 9 9
12 12 12 12 12 12 12 11 12 13 13 13 13 13 12 12 11 10 9 9 9 9 9 9 10 10 10 10 9 9 9 9 9 9 9 9 9 9 9 9 9 9 9 9 9 9 9 9 9
11 12 12 12 11 11 12 10 12 12 12 12 13 12 12 12 11 10 9 9 9 9 9 9 9 9 9 9 9 9 9 8 8 8 8 8 8 8 9 9 9 8 8 8 8 8 8 8 8
10 12 12 12 11 11 12 10 11 13 12 12 12 12 12 11 11 10 9 9 9 9 9 9 9 9 9 9 9 8 8 8 8 8 8 8 8 8 8 8 8 8 8 8 8 8 8 7 7
11 11 11 11 10 10 11 11 11 11 12 13 12 12 12 11 10 10 9 9 8 8 9 9 8 8 9 8 8 8 8 8 8 8 8 8 7 7 7 8 8 8 7 7 7 7 7 7 7
11 10 9 9 9 9 11 10 10 12 13 12 12 12 11 11 10 10 9 8 8 8 8 8 8 8 8 8 8 8 7 7 7 7 7 7 7 7 7 7 7 7 7 7 7 7 7 7 6
10 10 9 9 9 10 10 9 10 12 12 12 12 11 11 10 10 9 9 8 8 8 8 8 8 8 8 8 8 7 7 7 7 7 7 6 6 6 6 7 6 6 6 6 6 6 6 6 6
10 9 10 9 9 9 10 11 12 12 11 11 11 11 11 10 10 9 9 8 8 8 8 8 8 8 8 7 7 7 7 7 6 6 6 6 6 6 6 6 6 6 6 6 6 6 6 6 5
9 10 9 8 9 9 11 11 10 11 11 11 11 11 10 10 9 9 8 8 8 8 8 8 8 7 7 7 7 7 7 7 6 6 6 6 6 6 5 5 5 5 5 5 5 5 5 5 5
9 9 9 9 9 8 9 10 11 11 11 11 11 11 11 10 9 9 8 8 8 8 8 8 8 7 7 7 7 7 7 6 6 6 6 6 6 5 5 5 5 5 5 5 5 5 5 5 4
9 10 9 8 8 9 8 8 11 11 11 11 11 11 10 10 9 9 9 8 8 8 8 7 7 7 7 7 7 6 6 6 6 6 6 6 5 5 5 5 5 5 4 4 4 4 4 4 4

GEFSSGP_850_meantemp_150.txt.gz
Temperature
12 13 13 14 12 12 13 14 15 16 17 18 18 17 16 15 16 16 15 15 16 16 16 16 16 16 17 17 17 17 17 17 17 17 17 17 16 16 16 16 16 16 16 16 15 15 15 15 15
12 12 13 13 11 12 12 14 15 16 17 18 17 16 14 14 14 14 14 15 16 16 16 16 16 16 16 16 17 17 17 17 17 17 17 17 16 16 16 16 16 16 16 16 15 15 15 15 15
12 12 13 11 11 12 14 14 15 16 18 17 15 15 14 13 14 14 14 15 15 15 16 16 16 16 16 16 16 16 17 17 17 17 16 16 16 16 16 16 16 16 16 16 16 15 15 15 15
11 12 12 10 12 12 14 14 15 15 17 16 15 13 13 13 14 14 14 15 15 15 15 15 16 16 16 16 16 16 16 16 16 16 16 16 16 16 16 16 16 16 16 16 15 15 15 15 15
11 12 10 11 12 13 13 15 16 15 15 15 14 12 12 13 14 14 14 15 15 15 15 15 15 16 16 16 16 16 16 16 16 16 16 16 16 16 16 16 16 16 16 16 15 15 15 15 15
11 10 10 10 11 13 14 15 15 14 14 14 13 12 12 13 14 14 14 14 15 15 15 15 15 15 15 16 16 16 16 16 16 16 16 16 16 16 16 16 16 16 16 16 16 15 15 15 15
10 9 10 10 11 13 14 15 15 13 13 14 13 11 11 13 13 14 14 14 14 15 15 15 15 15 15 15 15 15 15 16 15 15 15 15 15 15 15 15 15 15 16 16 15 15 15 15 15
11 9 10 10 11 13 14 14 14 14 13 14 14 12 11 12 13 13 14 14 14 14 14 15 15 15 15 15 15 15 15 15 15 15 15 15 15 15 15 15 15 15 15 15 15 15 15 15 15
11 9 10 10 11 12 13 13 13 14 13 13 13 13 13 13 13 13 13 14 14 14 14 14 14 15 15 15 15 15 15 15 15 15 15 15 15 15 15 15 15 15 15 15 15 15 15 15 14
10 8 10 11 11 11 12 12 13 13 12 11 12 13 13 13 13 13 13 13 13 14 14 14 14 14 15 15 15 15 15 15 15 15 15 15 15 14 14 14 14 14 14 14 14 14 14 14 14
10 9 10 11 12 12 12 12 13 12 11 11 12 12 12 12 13 13 13 13 13 13 14 14 14 14 14 14 14 14 15 14 14 14 14 14 14 14 14 14 14 14 14 14 14 14 14 14 14
9 10 11 11 12 12 12 12 12 12 12 13 13 13 12 12 12 12 13 13 13 13 13 13 13 14 14 14 14 14 14 14 14 14 14 14 14 14 14 14 14 14 14 14 14 14 14 14 14
9 10 10 11 12 11 12 11 11 11 12 12 12 12 12 12 12 12 12 12 13 13 13 13 13 13 14 14 14 14 14 14 14 14 14 14 14 14 14 14 14 14 13 13 13 13 13 13 13
9 10 10 11 11 11 11 10 11 10 11 11 11 11 11 11 11 12 12 12 12 13 13 13 13 13 13 13 13 13 13 13 13 13 13 13 13 13 13 13 13 13 13 13 13 13 13 13 13
10 10 10 10 11 11 11 10 10 11 11 11 11 11 11 11 11 11 12 12 12 12 12 12 13 13 13 13 13 13 13 13 13 13 13 13 13 13 13 13 13 13 13 13 13 12 13 13 13
9 8 9 10 11 11 10 9 10 11 11 10 10 10 10 10 10 11 11 11 12 12 12 12 12 12 12 12 12 13 13 13 13 13 12 12 12 12 12 12 12 12 12 12 12 12 12 12 12
8 8 8 10 11 10 10 9 10 11 11 10 10 10 10 10 10 10 10 11 11 11 11 12 12 12 12 12 12 12 12 12 12 12 12 12 12 12 12 12 12 12 12 12 12 12 12 12 12
8 8 9 9 10 10 9 9 9 10 10 10 10 10 10 10 10 10 10 11 11 11 11 11 11 12 12 12 12 12 12 11 11 11 11 11 11 11 11 11 11 11 11 11 11 11 11 11 11
9 8 9 9 10 10 9 9 9 10 10 10 10 10 10 10 10 10 10 10 11 11 11 11 11 11 11 11 11 11 11 11 11 11 11 11 10 10 10 10 11 11 11 11 11 11 11 11 11
9 8 9 9 10 9 9 9 9 9 10 10 10 10 10 10 10 10 10 10 10 10 11 11 11 11 11 11 11 11 11 10 10 10 10 10 10 10 10 10 10 10 10 10 10 10 10 10 9
8 8 8 9 9 9 9 9 9 9 10 10 11 11 11 11 11 10 10 10 10 10 10 10 10 10 10 10 10 10 10 10 10 9 9 9 9 9 9 9 9 9 9 9 9 9 9 9 9
8 9 9 9 8 7 9 8 9 9 9 9 10 10 11 11 11 10 10 10 10 10 10 10 10 10 10 10 10 10 9 9 9 9 9 9 9 9 9 9 9 9 9 9 9 8 8 8 8
9 9 9 9 8 8 8 8 8 8 9 9 9 10 11 11 11 11 11 10 10 10 10 10 10 10 10 9 9 9 9 9 9 9 8 8 8 8 8 8 8 8 8 8 8 8 8 8 7
9 8 8 6 6 8 8 8 8 7 8 9 9 10 11 11 11 11 10 10 10 10 9 9 9 9 9 9 9 9 9 9 8 8 8 8 8 8 8 8 8 8 8 8 7 7 7 7 7
8 6 6 7 6 7 7 7 7 8 9 9 10 10 11 11 10 10 10 10 10 9 9 9 9 9 9 9 9 8 8 8 8 8 8 8 8 8 7 7 7 7 7 7 7 7 7 6 6
8 7 6 7 7 6 7 7 7 9 9 10 10 11 11 10 10 10 10 10 10 9 9 9 9 9 8 8 8 8 8 8 8 8 7 7 7 7 7 7 7 7 7 6 6 6 6 6 6
8 6 7 5 6 6 6 7 8 9 9 9 9 10 10 10 10 10 10 10 9 9 9 9 8 8 8 8 8 8 8 8 7 7 7 7 7 7 6 6 6 6 6 6 6 6 6 5 5
8 7 5 6 7 7 7 6 7 8 8 8 8 9 10 10 10 10 10 9 9 9 9 8 8 8 8 8 8 7 7 7 7 7 7 7 6 6 6 6 6 6 6 5 5 5 5 5 5
7 7 6 5 5 6 7 7 7 8 8 8 8 9 10 10 10 10 9 9 9 9 8 8 8 8 8 7 7 7 7 7 7 7 6 6 6 6 6 6 5 5 5 5 5 5 5 5 5
7 7 6 6 6 5 5 6 8 8 8 8 9 10 10 10 10 10 9 9 9 9 8 8 8 8 7 7 7 7 7 7 7 6 6 6 6 6 5 5 5 5 5 5 4 4 4 4 4

GEFSSGP_850_meantemp_156.txt.gz
Temperature
11 12 13 14 12 11 12 12 13 13 13 15 16 16 15 15 15 16 15 15 16 16 16 16 16 16 16 16 16 16 16 16 16 16 16 16 16 16 16 16 16 16 16 15 15 15 15 15 15
11 12 13 12 11 11 12 12 12 13 14 15 15 15 14 14 14 15 14 15 15 16 15 15 16 16 16 16 16 16 16 16 16 16 16 16 16 16 16 16 16 16 16 15 15 15 15 15 15
11 12 12 9 10 11 12 12 12 13 14 14 13 13 14 13 14 14 15 15 15 15 15 15 15 16 16 16 16 16 16 16 16 16 16 16 16 16 16 16 16 16 16 15 15 15 15 15 15
11 11 11 9 10 11 12 12 11 12 13 13 13 12 13 13 14 14 14 15 15 15 15 15 15 15 16 16 16 16 16 16 16 16 16 16 16 16 16 16 16 16 15 15 15 15 15 15 15
11 11 9 9 10 11 11 12 12 11 11 12 12 11 12 13 14 14 14 14 15 15 15 15 15 15 16 16 16 16 16 16 16 16 16 16 16 16 16 16 16 16 15 15 15 15 15 15 15
10 9 9 9 10 11 11 12 12 11 11 12 12 11 12 13 13 14 14 14 14 15 15 15 15 15 15 15 15 15 15 15 15 15 15 15 15 15 15 15 15 15 15 15 15 15 15 15 15
9 8 8 9 9 10 11 12 12 10 10 11 12 11 11 13 13 14 14 14 14 14 14 14 15 15 15 15 15 15 15 15 15 15 15 15 15 15 15 15 15 15 15 15 15 15 15 15 15
9 7 8 8 9 10 11 11 12 12 11 12 12 11 11 12 13 13 14 14 14 14 14 14 14 15 15 15 15 15 15 15 15 15 15 15 15 15 15 15 15 15 15 15 15 15 15 14 14
9 7 8 8 9 10 10 10 11 11 11 11 12 12 13 12 13 13 13 13 14 14 14 14 14 14 14 14 14 15 15 15 15 15 15 15 15 15 15 15 14 14 14 14 14 14 14 14 14
8 7 8 9 9 10 10 10 11 11 11 11 11 12 12 12 12 13 13 13 13 13 14 14 14 14 14 14 14 14 14 14 14 14 14 14 14 14 14 14 14 14 14 14 14 14 14 14 14
8 8 9 9 10 10 10 10 11 11 10 11 11 12 12 12 12 12 13 13 13 13 13 13 13 14 14 14 14 14 14 14 14 14 14 14 14 14 14 14 14 14 14 14 14 14 14 14 14
8 8 9 9 10 10 10 10 10 10 11 12 12 12 12 12 12 12 12 12 13 13 13 13 13 13 13 14 14 14 14 14 14 14 14 14 14 14 14 14 14 13 13 13 13 13 13 13 13
8 8 9 9 10 10 10 9 9 9 11 12 12 12 12 12 12 12 12 12 12 12 12 13 13 13 13 13 13 13 13 13 13 13 13 13 14 14 13 13 13 13 13 13 13 13 13 13 13
8 8 9 9 10 10 9 9 9 9 10 11 11 11 11 11 12 12 12 12 12 12 12 12 13 13 13 13 13 13 13 13 13 13 13 13 13 13 13 13 13 13 13 13 13 13 13 13 13
8 8 9 9 9 9 10 9 8 9 10 10 10 10 11 11 11 11 11 12 12 12 12 12 12 12 12 12 12 12 12 12 12 13 13 13 13 13 13 13 13 12 12 12 12 12 12 12 12
8 8 8 9 9 9 10 9 9 9 9 9 9 10 10 10 11 11 11 11 11 11 12 12 12 12 12 12 12 12 12 12 12 12 12 12 12 12 12 12 12 12 12 12 12 12 12 12 12
7 7 8 8 9 9 9 9 8 9 9 9 9 9 10 10 10 10 11 11 11 11 11 11 11 11 11 11 11 11 12 12 12 12 12 12 12 12 12 12 11 11 11 11 11 11 11 11 11
7 7 8 8 8 8 8 8 7 8 8 8 9 9 9 10 10 10 10 10 10 10 10 11 11 11 11 11 11 11 11 11 11 11 11 11 11 11 11 11 11 11 11 11 11 11 11 11 11
7 7 7 8 8 8 8 8 7 8 8 8 8 9 9 10 10 10 10 10 10 10 10 10 10 11 11 11 11 11 11 11 11 10 10 10 10 10 10 10 10 10 10 10 10 10 10 10 10
7 7 7 8 8 8 8 8 8 8 8 8 8 9 9 9 10 10 10 10 10 10 10 10 10 10 10 10 10 10 10 10 10 10 10 10 10 10 10 10 10 10 10 10 10 10 9 9 9
7 7 7 8 8 7 8 8 8 8 8 8 9 9 9 10 10 10 10 10 10 10 10 10 10 10 10 10 10 10 10 10 10 10 10 9 9 10 10 9 9 9 9 9 9 9 9 9 8
7 8 8 8 7 6 7 8 8 8 8 8 8 9 9 10 10 10 10 10 10 10 10 10 10 10 9 9 9 9 9 9 9 9 9 9 9 9 9 9 9 9 9 8 8 8 8 8 8
7 7 7 7 7 7 7 7 7 7 8 8 8 9 10 10 10 10 10 10 10 10 10 10 9 9 9 9 9 9 9 9 9 9 9 9 8 8 8 8 8 8 8 8 8 8 8 8 7
7 7 7 6 6 7 7 7 7 6 8 8 8 9 10 10 10 10 10 10 10 10 10 9 9 9 9 9 9 9 9 8 8 8 8 8 8 8 8 8 8 7 7 7 7 7 7 7 7
7 6 6 7 6 7 6 6 6 7 7 7 8 9 10 10 10 10 10 10 10 10 10 9 9 9 9 9 8 8 8 8 8 8 8 8 8 8 7 7 7 7 7 7 7 6 6 6 6
7 7 6 7 7 6 5 6 6 7 7 8 8 9 10 10 10 10 10 10 10 10 9 9 9 9 8 8 8 8 8 8 8 7 7 7 7 7 7 7 7 7 6 6 6 6 6 6 6
7 5 6 5 5 5 5 5 6 7 7 7 8 9 9 10 10 10 10 10 10 9 9 9 9 8 8 8 8 8 7 7 7 7 7 7 7 7 6 6 6 6 6 6 6 6 5 5 5
7 5 4 5 7 7 6 6 6 7 7 7 7 8 9 10 10 10 10 10 9 9 9 8 8 8 8 8 7 7 7 7 7 7 7 7 6 6 6 6 6 6 6 6 5 5 5 5 5
6 6 4 4 5 6 6 6 6 6 7 6 7 8 9 9 10 10 9 9 9 9 9 8 8 8 8 7 7 7 7 7 7 7 6 6 6 6 6 6 6 5 5 5 5 5 5 4 4
6 6 5 6 5 4 4 5 7 6 6 6 7 8 9 9 9 9 9 9 9 9 8 8 8 8 8 7 7 7 7 7 7 6 6 6 6 6 5 5 5 5 5 5 5 4 4 4 4

GEFSSGP_850_meantemp_162.txt.gz
Temperature
12 12 13 14 17 18 19 20 20 20 20 19 19 20 22 22 22 20 15 15 15 15 15 15 15 16 16 16 16 16 16 16 16 16 16 16 16 16 16 16 16 16 16 16 16 15 15 15 15
11 12 13 14 17 18 19 20 19 19 18 17 17 18 19 19 16 15 15 15 15 15 15 15 15 16 16 16 16 16 16 16 16 16 16 16 16 16 16 16 16 16 16 16 16 15 15 15 15
11 11 13 15 16 18 19 19 19 17 16 16 17 17 18 17 15 14 14 14 15 15 15 15 15 15 16 16 16 16 16 16 16 16 16 16 16 16 16 16 16 16 15 15 15 15 15 15 15
10 11 13 15 16 18 19 18 17 16 15 15 16 16 15 14 14 14 14 14 14 15 15 15 15 15 15 16 16 16 16 16 16 16 16 16 16 16 16 16 16 16 15 15 15 15 15 15 15
10 12 14 14 16 17 17 17 16 17 16 15 16 16 14 13 13 14 14 14 14 14 14 15 15 15 15 16 16 16 16 15 15 16 16 16 16 16 16 16 16 15 15 15 15 15 15 15 15
11 13 14 14 15 16 16 15 15 17 16 15 15 16 14 13 13 14 14 14 14 14 14 15 15 15 15 15 15 15 15 15 15 15 15 15 15 15 15 15 15 15 15 15 15 15 15 15 15
11 13 13 14 15 15 15 14 15 16 16 15 15 15 13 13 13 13 13 14 14 14 14 14 15 15 15 15 15 15 15 15 15 15 15 15 15 15 15 15 15 15 15 15 15 15 15 15 15
10 12 13 14 14 14 14 13 14 15 15 13 13 15 14 12 13 13 13 13 14 14 14 14 14 14 14 14 14 15 15 15 15 15 15 15 15 15 15 15 15 15 15 15 15 15 15 14 14
9 11 12 13 13 14 13 13 13 12 13 12 12 13 13 12 12 13 13 13 13 14 14 14 14 14 14 14 14 14 14 14 14 14 14 14 14 14 14 14 14 14 14 14 14 14 14 14 14
10 11 12 13 13 13 12 13 12 12 13 12 12 11 12 12 12 12 13 13 13 13 14 14 14 14 14 14 14 14 14 14 14 14 14 14 14 14 14 14 14 14 14 14 14 14 14 14 14
10 11 12 12 11 11 12 12 12 13 14 14 12 11 11 12 12 12 12 12 13 13 13 13 13 13 13 13 13 14 14 14 14 14 14 14 14 14 14 14 14 14 14 14 14 14 13 13 13
10 11 11 11 10 11 11 12 12 13 13 12 12 12 11 11 11 12 12 12 12 13 13 13 13 13 13 13 13 13 13 13 13 13 13 13 13 13 14 14 14 13 13 14 13 13 13 13 13
10 10 10 10 10 10 11 11 12 11 11 11 11 11 11 11 11 11 11 12 12 12 12 12 13 13 13 13 13 13 13 13 13 13 13 13 13 13 13 13 13 13 13 13 13 13 13 13 13
10 10 10 10 10 10 11 11 11 10 10 10 10 10 10 11 11 11 11 11 12 12 12 12 12 12 12 12 13 13 13 12 12 12 13 13 13 13 13 13 13 13 13 13 13 12 12 12 12
10 11 11 10 11 10 11 11 11 9 10 10 10 10 10 10 10 11 11 11 11 11 12 12 12 12 12 12 12 12 12 12 12 12 12 12 12 12 12 12 12 12 12 12 12 12 12 12 12
11 11 11 11 11 11 12 12 11 9 10 10 10 9 9 9 10 10 10 11 11 11 11 11 11 11 11 12 12 12 12 12 12 12 12 12 12 12 12 12 12 12 12 12 12 12 11 11 11
11 11 11 11 11 11 12 12 10 9 10 10 9 9 9 9 9 10 10 11 11 11 11 11 11 11 11 11 11 11 11 11 11 11 11 11 11 11 11 11 11 12 12 11 11 11 11 11 11
11 11 11 11 11 11 12 11 10 9 10 10 10 9 9 9 9 9 10 10 10 11 11 11 11 11 11 10 10 10 11 11 11 11 11 11 11 11 11 11 11 11 11 11 11 11 11 11 10
11 11 11 11 10 11 11 11 11 10 10 10 10 9 9 9 9 9 10 10 10 10 10 10 10 10 10 10 10 10 10 10 10 10 10 10 10 10 10 10 11 11 10 10 10 10 10 10 10
11 11 11 11 10 11 11 11 11 11 10 10 10 10 9 9 9 9 10 10 10 10 10 10 10 10 10 10 10 10 10 10 10 10 10 10 10 10 10 10 10 10 10 10 10 10 10 9 9
10 11 11 10 10 11 11 12 12 11 10 10 9 9 9 9 9 9 9 10 10 10 10 10 9 10 10 9 9 9 9 9 9 9 10 9 10 10 10 10 9 9 9 9 9 9 9 9 8
11 10 10 10 11 11 11 12 13 12 11 11 10 10 9 9 9 9 9 9 10 10 10 9 9 9 9 9 9 9 9 9 9 9 9 9 9 9 9 9 9 9 9 9 9 9 9 8 8
10 9 10 10 11 12 12 13 13 12 12 12 11 10 9 9 9 9 9 9 10 10 9 9 9 9 9 9 9 9 9 9 9 9 9 9 9 9 9 9 8 8 8 8 8 8 8 8 8
9 10 10 10 12 12 11 12 13 12 12 12 11 10 9 9 9 9 9 9 9 9 9 9 9 9 9 9 9 9 9 9 8 8 8 8 8 8 8 8 8 8 8 8 8 8 7 7 7
10 11 11 12 12 12 10 11 12 12 11 11 11 10 9 9 9 9 9 9 9 9 9 9 9 9 9 9 9 9 9 8 8 8 8 8 8 8 8 8 8 7 7 7 7 7 7 7 7
10 11 11 12 12 12 10 11 12 11 10 9 9 9 9 9 9 9 9 9 9 9 9 9 9 9 9 9 8 8 8 8 8 8 8 8 8 7 7 7 7 7 7 7 7 7 6 6 6
10 10 10 11 10 11 12 12 12 11 10 10 9 9 9 8 9 9 9 9 9 9 9 9 9 9 8 8 8 8 8 8 8 8 7 7 7 7 7 7 7 7 7 6 6 6 6 6 6
9 9 10 10 11 12 12 12 12 11 11 11 10 10 9 8 9 9 9 9 9 9 9 9 9 8 8 8 8 8 8 7 7 7 7 7 7 7 7 7 7 6 6 6 6 6 6 6 5
9 9 9 10 10 12 12 13 12 11 10 10 10 9 8 8 8 9 9 9 9 9 9 9 8 8 8 8 8 8 7 7 7 7 7 7 7 7 6 6 6 6 6 6 5 5 5 5 5
8 9 10 10 10 10 11 12 11 10 9 9 9 8 8 8 8 9 9 9 9 9 9 8 8 8 8 8 8 7 7 7 7 7 7 6 6 6 6 6 6 6 5 5 5 5 5 4 4

GEFSSGP_850_meantemp_168.txt.gz
Temperature
13 13 14 15 15 16 17 19 21 22 22 23 23 23 22 20 20 18 17 17 17 17 17 17 16 16 16 16 16 16 16 16 16 16 16 16 16 16 16 16 16 16 16 16 16 16 16 16 16
13 13 14 15 15 16 17 19 20 21 21 21 21 22 21 19 17 17 16 16 16 16 17 16 16 16 16 16 16 16 16 16 16 16 16 16 16 16 15 16 16 16 16 15 15 15 15 15 15
12 13 14 15 15 16 18 19 20 20 20 20 20 20 19 17 16 16 16 16 16 16 16 16 16 16 16 16 16 16 16 16 16 16 16 16 16 16 15 15 16 15 15 15 15 15 15 15 15
12 13 14 14 15 17 18 19 19 19 19 20 19 18 17 16 16 15 15 15 15 15 16 16 16 16 16 16 16 16 16 16 16 16 16 15 15 15 15 15 15 15 15 15 15 15 15 15 15
12 13 13 14 15 17 18 19 19 18 18 19 18 17 15 15 15 15 15 15 15 15 15 15 15 16 16 16 15 15 15 15 15 15 15 15 15 15 15 15 15 15 15 15 15 15 15 15 15
12 13 13 13 15 17 18 18 18 18 18 18 17 16 14 15 15 15 15 15 15 15 15 15 15 15 15 15 15 15 15 15 15 15 15 15 15 15 15 15 15 15 15 15 15 15 15 15 15
12 12 13 14 15 16 17 17 17 17 17 17 17 15 14 14 14 14 14 14 14 14 15 15 15 15 15 15 15 15 15 15 15 15 15 15 15 15 15 15 15 15 15 15 15 15 15 15 15
11 12 13 13 14 15 16 16 16 16 16 16 16 15 13 13 13 14 14 14 14 14 14 14 14 15 15 15 15 15 15 15 15 15 15 15 15 15 15 15 15 15 15 15 15 14 14 14 14
11 11 11 13 14 14 15 15 15 15 15 15 15 15 14 13 13 13 13 13 13 14 14 14 14 14 14 14 14 15 15 15 15 14 14 14 14 14 14 15 14 14 14 14 14 14 14 14 14
11 10 12 14 14 14 14 14 14 14 14 14 13 13 13 13 13 13 13 13 13 13 13 14 14 14 14 14 14 14 14 14 14 14 14 14 14 14 14 14 14 14 14 14 14 14 14 14 14
11 11 12 13 13 13 13 13 13 13 13 13 12 12 12 12 12 12 13 13 13 13 13 13 13 13 14 14 14 14 14 14 14 14 14 14 14 14 14 14 14 14 14 14 14 14 13 13 13
12 12 12 12 12 12 12 12 13 13 13 13 12 12 12 12 12 12 12 12 12 12 13 13 13 13 13 13 13 13 13 13 13 13 13 13 14 14 13 13 13 13 13 14 14 13 13 13 13
11 11 12 12 12 12 11 12 12 12 12 12 12 11 11 12 12 12 12 12 12 12 12 12 13 13 13 13 13 13 13 13 13 13 13 13 13 13 13 13 13 13 13 13 13 13 13 13 13
12 12 12 12 12 12 12 12 12 12 12 12 11 11 11 11 11 11 11 11 12 12 12 12 12 13 13 13 13 13 13 13 13 13 13 13 13 13 13 13 13 13 13 13 13 13 12 12 12
12 11 12 12 12 12 12 11 11 11 11 11 11 11 10 11 11 11 11 11 11 12 12 12 12 12 12 12 13 13 13 12 12 12 12 13 13 13 13 13 13 13 13 13 13 12 12 12 12
12 11 11 12 12 12 11 10 11 12 11 11 11 11 10 10 10 10 10 11 11 11 11 11 12 12 12 12 12 12 12 12 12 12 12 12 12 12 12 12 12 12 12 12 12 12 12 12 11
11 11 11 12 13 12 11 10 12 11 11 11 11 11 10 10 10 10 10 10 11 11 11 11 11 12 12 12 12 12 12 12 12 12 12 12 12 12 12 12 12 12 12 12 12 12 12 11 11
10 11 11 12 12 12 11 11 11 12 12 11 11 10 10 10 10 10 10 10 10 11 11 11 11 11 11 11 11 11 11 11 11 11 11 11 11 11 11 11 11 11 11 11 11 11 11 11 11
11 11 11 12 13 12 11 11 12 12 12 12 11 10 10 10 10 10 10 10 10 10 10 11 11 11 11 11 11 11 11 11 11 11 11 11 11 11 11 11 11 11 11 11 10 11 11 10 10
12 11 11 12 12 12 12 12 12 12 12 12 11 11 10 10 10 9 9 10 10 10 10 10 10 11 11 10 10 10 10 10 10 10 10 10 10 10 10 10 10 10 10 10 10 10 10 10 9
12 11 10 11 11 12 12 11 12 12 12 12 11 11 11 10 10 10 9 9 10 10 10 10 10 10 10 10 10 10 10 10 10 10 10 10 10 10 10 10 10 10 10 10 10 9 9 9 9
11 11 11 11 10 10 12 10 12 12 11 12 12 11 11 11 10 10 9 9 10 10 10 10 10 10 10 10 10 10 10 10 10 10 10 10 9 9 9 9 9 10 9 9 9 9 9 9 9
10 11 11 11 10 10 11 11 11 12 11 11 11 11 11 11 10 10 10 9 10 10 10 10 10 10 10 10 9 9 9 9 9 9 9 9 9 9 9 9 9 9 9 9 9 9 9 8 8
11 11 11 11 10 10 11 10 11 11 11 12 12 12 11 11 10 10 9 9 9 9 9 9 9 9 9 9 9 9 9 9 9 9 9 9 9 9 9 9 9 9 8 8 8 8 8 8 8
11 10 9 9 9 10 11 10 10 12 12 12 12 12 11 11 10 10 9 9 9 9 9 9 9 9 9 9 9 9 9 9 9 9 8 8 8 8 8 8 8 8 8 8 8 8 8 7 7
10 10 9 9 9 10 10 10 10 12 12 12 12 11 11 10 10 9 9 9 9 9 9 9 9 9 9 9 9 9 9 9 9 8 8 8 8 8 8 8 8 8 7 7 7 7 7 7 7
10 10 11 9 10 10 10 11 11 12 11 11 11 11 11 10 10 9 9 9 9 9 9 9 9 9 9 9 8 8 8 8 8 8 8 8 8 8 7 7 7 7 7 7 7 7 7 6 6
10 10 9 9 9 10 11 11 10 10 10 10 11 11 11 10 10 9 9 9 9 9 9 9 9 9 9 8 8 8 8 8 8 8 7 7 7 7 7 7 7 7 7 7 6 6 6 6 6
10 10 10 10 10 9 10 10 11 11 11 10 11 11 11 10 10 9 9 9 9 9 9 9 9 8 8 8 8 8 8 8 8 7 7 7 7 7 7 7 7 7 6 6 6 6 5 5 5
10 10 10 9 9 10 9 9 12 11 11 11 11 11 10 10 10 9 9 9 9 9 9 9 8 8 8 8 8 8 7 7 7 7 7 7 7 7 7 6 6 6 6 6 5 5 5 5 5

GEFSSGP_850_meantemp_174.txt.gz
Temperature
13 13 14 14 12 10 11 12 14 15 16 17 17 17 16 16 17 17 16 17 17 17 16 16 16 16 17 17 17 17 16 16 16 16 16 16 16 16 16 16 16 16 15 15 15 15 15 16 15
13 13 14 13 10 10 11 12 14 15 16 17 17 16 15 15 16 16 16 16 16 16 16 16 16 16 16 17 16 16 16 16 16 16 16 16 16 16 16 15 15 15 15 15 15 15 15 15 15
13 13 13 10 10 10 12 13 14 15 16 16 15 15 15 15 15 15 16 16 16 16 16 16 16 16 16 16 16 16 16 16 16 16 16 16 16 15 15 15 15 15 15 15 15 15 15 15 15
12 12 12 9 10 11 12 13 13 14 15 15 14 13 14 14 15 15 15 15 16 16 15 16 16 16 16 16 16 16 16 16 16 16 16 16 15 15 15 15 15 15 15 15 15 15 15 15 15
12 12 9 9 10 11 11 13 14 13 13 14 13 12 13 14 14 15 15 15 15 15 15 15 15 16 16 16 16 16 16 16 16 15 15 15 15 15 15 15 15 15 15 15 15 15 15 15 15
11 9 8 8 10 11 11 13 13 12 13 13 13 12 13 13 14 14 14 15 15 15 15 15 15 15 15 16 16 16 15 15 15 15 15 15 15 15 15 15 15 15 15 15 15 15 15 15 14
10 8 8 9 9 10 12 13 12 12 12 13 13 12 12 13 13 13 14 14 14 15 15 15 15 15 15 15 15 15 15 15 15 15 15 15 15 15 15 15 15 15 15 15 15 14 14 14 14
10 8 8 8 9 10 12 12 13 12 12 13 13 12 12 12 13 13 13 14 14 14 14 14 15 15 15 15 15 15 15 15 15 15 15 15 15 15 15 15 15 15 15 15 15 14 14 14 14
10 7 8 9 9 10 11 11 12 12 12 12 12 12 13 12 12 13 13 13 13 13 14 14 14 14 14 14 14 15 15 15 15 15 15 15 15 15 15 15 14 14 14 14 14 14 14 14 14
9 7 8 10 10 10 10 10 11 11 11 11 11 12 12 12 12 12 13 13 13 13 13 14 14 14 14 14 14 14 14 14 14 14 14 14 14 14 14 14 14 14 14 14 14 14 14 14 14
9 8 9 10 10 10 10 10 11 10 10 10 10 11 11 12 11 12 12 12 12 13 13 13 13 14 14 14 14 14 14 14 14 14 14 14 14 14 14 14 14 14 14 14 14 14 14 14 13
8 9 9 10 10 10 10 10 10 10 10 11 11 11 11 11 11 11 12 12 12 12 12 13 13 13 13 14 14 14 14 14 14 14 14 14 14 14 14 14 14 14 14 14 14 13 13 13 13
8 9 10 10 10 10 10 10 10 10 11 11 11 11 11 11 11 11 11 12 12 12 12 12 13 13 13 13 13 13 13 13 13 13 13 13 13 13 13 14 13 13 13 13 13 13 13 13 13
9 9 9 10 10 10 9 9 10 10 10 10 10 10 11 11 11 11 11 11 12 12 12 12 12 12 12 13 13 13 13 13 13 13 13 13 13 13 13 13 13 13 13 13 13 13 13 13 12
9 8 9 9 10 10 10 9 9 10 10 10 10 10 10 10 11 11 11 11 11 12 12 12 12 12 12 12 13 13 13 13 12 12 13 12 12 13 13 13 13 13 13 13 12 12 12 12 12
8 8 8 9 10 10 9 9 9 10 10 9 9 9 10 10 10 10 11 11 11 11 11 12 12 12 12 12 12 12 12 12 12 12 12 12 12 12 12 12 12 12 12 12 12 12 12 12 12
7 7 8 9 9 9 9 8 9 10 9 9 9 9 9 9 10 10 10 11 11 11 11 11 11 11 11 11 12 12 12 12 12 12 12 12 12 12 12 12 12 12 12 12 12 12 12 11 11
7 7 8 8 9 9 8 8 9 10 9 9 9 9 9 9 10 10 10 10 11 11 11 11 11 11 11 11 11 11 11 11 11 11 11 11 11 11 11 11 11 11 11 11 11 11 11 11 11
8 8 8 8 9 9 8 8 9 9 9 9 9 9 9 9 10 10 10 10 10 10 10 10 10 10 10 11 11 11 11 11 11 11 11 11 11 11 11 11 11 11 11 11 11 11 11 10 10
8 8 8 8 9 9 8 9 9 9 9 9 9 9 9 9 9 9 10 10 10 10 10 10 10 10 10 10 10 10 10 10 10 10 10 10 10 10 10 10 10 10 10 10 10 10 10 10 10
8 8 8 8 8 9 9 8 9 9 9 10 10 9 9 10 10 9 10 10 10 10 10 10 10 10 10 10 10 10 10 10 10 10 10 10 10 10 10 10 10 10 10 10 10 10 9 9 9
8 9 9 8 8 7 8 7 8 8 9 9 9 9 9 9 10 9 10 10 10 10 10 10 10 10 10 10 10 10 10 10 10 10 10 10 9 9 9 9 9 9 9 9 9 9 9 9 9
8 8 8 8 8 7 7 7 7 8 8 8 8 9 10 10 10 9 10 10 10 9 9 10 10 10 9 9 9 9 9 10 10 9 9 9 9 9 9 9 9 9 9 9 9 8 8 8 8
8 8 8 7 7 7 7 7 7 7 8 9 9 9 10 10 10 9 10 10 9 9 9 9 9 9 9 9 9 9 9 9 9 9 9 9 9 9 9 9 8 8 8 8 8 8 8 8 8
8 7 7 7 6 7 7 7 7 8 8 9 9 9 10 10 10 9 9 9 9 9 9 9 9 9 9 9 9 9 9 9 9 9 9 9 9 9 8 8 8 8 8 8 8 8 7 7 7
7 7 7 8 7 6 7 7 8 9 9 9 10 10 10 10 10 10 10 9 9 9 9 9 9 9 9 9 9 9 9 8 8 8 8 8 8 8 8 8 8 8 7 7 7 7 7 7 7
8 7 7 6 6 6 7 7 8 9 8 8 8 9 9 9 9 9 9 9 9 9 9 9 9 9 9 9 9 9 8 8 8 8 8 8 8 8 8 7 7 7 7 7 7 7 6 6 6
8 7 6 6 7 7 7 7 7 8 8 8 7 8 9 9 9 9 9 9 9 9 9 9 9 8 9 9 8 8 8 8 8 8 8 7 7 7 7 7 7 7 7 6 6 6 6 6 6
8 8 7 6 6 7 7 8 8 8 8 7 7 9 9 9 9 9 9 9 9 9 9 9 9 8 8 8 8 8 8 8 8 7 7 7 7 7 7 7 7 7 6 6 6 6 6 5 5
8 8 7 7 7 6 6 7 8 7 8 8 8 9 9 9 9 9 9 9 9 9 9 8 8 8 8 8 8 8 7 7 7 7 7 7 7 6 6 6 6 6 6 6 6 5 5 5 5

GEFSSGP_850_meantemp_180.txt.gz
Temperature
13 13 14 14 11 9 10 11 12 12 13 14 15 15 14 14 15 16 16 16 16 16 16 16 16 16 16 16 16 16 16 16 16 16 16 16 16 16 16 16 16 15 15 15 15 15 15 15 15
13 13 14 13 9 10 10 10 11 12 13 14 14 14 14 14 15 15 15 16 16 16 16 15 15 16 16 16 16 16 16 16 16 16 16 16 16 16 15 15 15 15 15 15 15 15 15 15 15
12 13 13 8 8 9 11 11 11 12 13 13 13 13 13 14 14 15 15 15 15 15 15 15 15 15 16 16 16 16 16 16 16 16 16 16 16 16 15 15 15 15 15 15 15 15 15 15 15
12 12 11 8 9 9 10 11 10 11 12 13 13 12 13 13 14 14 14 14 15 15 15 15 15 15 16 16 15 15 15 16 16 16 16 16 15 15 15 15 15 15 15 15 15 15 15 15 15
12 11 8 8 9 9 9 10 11 10 11 12 12 11 12 13 13 13 14 14 14 15 15 15 15 15 15 15 15 15 15 15 16 15 15 15 15 15 15 15 15 15 15 15 15 15 15 15 14
11 8 7 8 8 9 9 11 11 10 11 11 11 11 12 13 13 13 13 13 14 14 14 14 15 15 15 15 15 15 15 15 15 15 15 15 15 15 15 15 14 15 15 15 15 15 14 14 14
9 6 7 8 7 8 10 11 10 10 10 11 11 11 12 12 12 12 13 13 13 13 14 14 14 14 14 15 15 15 15 15 15 15 15 15 15 15 15 14 14 14 14 14 14 14 14 14 14
10 6 7 7 7 8 10 10 11 10 10 11 11 11 11 12 12 12 12 12 13 13 13 14 14 14 14 14 15 15 15 15 15 15 15 15 15 14 14 14 14 14 14 14 14 14 14 14 14
9 6 7 7 8 8 9 9 10 10 10 10 11 11 11 11 11 11 12 12 12 13 13 13 14 14 14 14 14 14 14 14 14 14 14 14 14 14 14 14 14 14 14 14 14 14 14 14 14
8 6 7 8 8 8 9 9 9 9 9 10 10 11 11 11 11 11 11 11 12 12 12 13 13 13 14 14 14 14 14 14 14 14 14 14 14 14 14 14 14 14 14 14 14 14 14 13 13
8 7 8 8 9 9 8 9 9 9 8 9 10 10 10 10 11 11 11 11 11 12 12 12 12 13 13 13 13 14 14 14 14 14 14 14 14 14 14 13 13 13 14 14 14 14 13 13 13
7 7 8 8 9 9 8 9 9 9 9 10 10 10 10 10 10 10 11 11 11 11 12 12 12 12 13 13 13 13 13 13 13 13 13 13 13 13 13 13 13 13 13 13 13 13 13 13 13
7 7 8 9 9 9 8 8 8 9 10 10 10 10 10 10 10 10 11 11 11 11 11 12 12 12 12 12 13 13 13 13 13 13 13 13 13 13 13 13 13 13 13 13 13 13 13 13 13
7 7 8 8 8 8 8 8 8 9 10 10 10 10 10 10 10 10 10 10 11 11 11 11 11 11 11 12 12 12 12 13 13 13 13 13 13 13 13 13 13 13 13 13 13 13 13 12 12
8 7 7 8 8 8 8 8 8 9 9 9 9 9 9 9 9 9 10 10 10 11 11 11 11 11 11 11 12 12 12 12 12 12 12 12 12 12 12 12 12 12 12 12 12 12 12 12 12
7 7 7 8 8 8 8 7 8 9 9 9 9 9 9 9 9 9 10 10 10 10 11 11 11 11 11 11 11 12 12 12 12 12 12 12 12 12 12 12 12 12 12 12 12 12 12 12 11
6 6 6 7 8 8 7 7 8 9 9 8 9 9 9 9 9 9 9 10 10 10 10 10 10 11 11 11 11 11 11 11 11 11 11 11 11 12 12 12 12 12 11 11 11 11 11 11 11
7 6 6 6 7 7 7 7 8 9 8 8 9 9 8 9 9 9 9 9 9 10 10 10 10 10 10 10 10 11 11 11 11 11 11 11 11 11 11 11 11 11 11 11 11 11 11 10 10
6 6 6 7 7 7 7 7 8 8 8 8 8 8 8 9 9 9 9 9 9 9 9 10 10 10 10 10 10 10 11 11 11 11 11 10 11 11 10 10 11 11 10 10 10 10 10 10 10
6 6 6 6 7 7 7 7 7 7 8 8 8 8 8 9 9 9 9 9 9 9 9 9 10 10 10 10 10 10 10 10 10 10 10 10 10 10 10 10 10 10 10 10 10 10 10 10 9
7 6 6 6 7 7 7 7 7 8 8 8 8 8 8 8 9 9 9 9 9 9 9 9 9 9 9 9 9 10 10 10 9 9 10 10 10 10 10 10 9 9 9 9 9 9 9 9 9
7 7 7 7 6 6 6 6 7 7 7 7 7 8 8 8 9 9 9 9 9 9 9 9 9 9 9 9 9 9 9 9 9 9 9 9 9 9 9 9 9 9 9 9 9 9 9 9 9
7 7 7 7 6 6 6 6 6 6 7 7 7 8 8 8 9 9 9 9 9 9 9 9 9 9 9 9 9 9 9 9 9 9 9 9 9 9 9 9 9 9 9 9 8 8 8 8 8
7 7 7 6 6 7 6 6 6 6 7 7 7 8 8 9 9 9 9 9 9 9 9 9 9 9 9 9 9 9 8 9 8 8 9 9 9 9 9 8 8 8 8 8 8 8 8 8 8
6 6 6 6 6 6 6 6 6 7 7 7 7 8 9 9 9 9 9 9 9 9 9 9 9 9 9 9 8 8 8 8 8 8 8 8 8 8 8 8 8 8 8 8 8 7 7 7 7
7 7 6 7 6 6 6 6 7 7 7 7 8 8 8 9 9 9 9 9 9 9 9 9 9 9 9 8 8 8 8 8 8 8 8 8 8 8 8 8 7 7 7 7 7 7 7 7 7
7 6 6 5 5 5 6 6 7 7 7 7 7 8 8 8 9 9 9 9 9 9 9 9 9 9 8 8 8 8 8 8 8 8 7 7 7 7 7 7 7 7 7 7 7 7 6 6 6
7 5 4 5 7 7 7 6 6 7 7 6 6 7 8 8 9 9 9 9 9 9 9 9 8 8 8 8 8 8 8 8 8 7 7 7 7 7 7 7 7 7 7 6 6 6 6 6 6
6 6 5 4 5 6 6 7 7 7 7 6 6 7 8 8 8 9 9 9 8 8 8 8 8 8 8 8 8 8 8 7 7 7 7 7 7 7 7 6 6 6 6 6 6 6 6 5 5
6 6 5 6 5 4 4 6 7 6 6 6 6 7 8 8 8 8 8 8 8 8 8 8 8 8 8 8 7 7 7 7 7 7 7 7 6 6 6 6 6 6 6 5 5 5 5 5 5

GEFSSGP_850_meantemp_186.txt.gz
Temperature
14 14 14 15 18 19 19 19 18 18 18 17 16 17 19 20 20 19 15 15 15 15 15 15 15 15 15 15 15 15 15 15 15 15 15 15 15 15 15 15 15 15 15 16 16 16 15 15 15
13 14 14 16 19 19 19 18 17 17 16 15 16 16 17 18 16 15 14 14 15 15 15 15 15 15 15 15 15 15 15 15 15 15 15 15 15 15 15 15 15 15 15 15 15 15 15 15 15
13 14 15 17 18 19 18 17 17 16 15 15 16 16 16 16 14 14 14 14 14 14 14 14 15 15 15 15 15 15 15 15 15 15 15 15 15 15 15 15 15 15 15 15 15 15 15 15 15
13 13 15 17 17 17 17 16 15 15 15 14 15 16 15 14 13 13 13 14 14 14 14 14 14 15 15 15 15 15 15 15 15 15 15 15 15 15 15 15 15 15 15 15 15 15 15 15 15
13 14 16 16 16 16 16 15 14 15 15 15 14 16 15 13 13 13 13 13 13 13 14 14 14 14 14 15 15 15 15 15 15 15 15 15 15 15 15 15 15 15 15 15 15 15 15 15 15
13 15 16 16 15 15 15 13 14 15 15 14 14 15 14 13 12 13 13 12 13 13 13 13 14 14 14 14 14 14 15 15 15 15 15 15 15 15 15 15 15 15 15 15 14 14 14 14 14
14 15 15 15 14 14 14 13 13 14 14 14 13 14 14 12 12 12 12 12 12 13 13 13 13 13 14 14 14 14 14 15 15 15 15 15 14 14 14 14 14 14 14 14 14 14 14 14 14
11 14 13 14 14 14 13 12 12 12 13 12 12 13 13 12 12 12 12 12 12 12 12 13 13 13 13 14 14 14 14 14 14 14 14 14 14 14 14 14 14 14 14 14 14 14 14 14 14
11 13 13 13 13 13 13 12 12 11 12 11 11 12 12 11 11 11 11 11 12 12 12 12 13 13 13 13 13 14 14 14 14 14 14 14 14 14 14 14 14 14 14 14 14 14 14 14 14
12 13 13 13 13 13 12 12 11 12 12 12 12 11 11 11 10 11 11 11 11 11 12 12 12 13 13 13 13 13 13 13 13 14 14 14 14 14 14 14 14 14 14 14 14 14 13 13 13
11 12 12 11 11 11 11 11 11 11 12 12 12 11 10 10 10 10 10 10 11 11 11 12 12 12 13 13 13 13 13 13 13 13 13 14 14 14 13 13 13 13 13 13 13 13 13 13 13
11 11 11 11 10 10 10 11 11 11 11 11 11 10 10 10 10 10 10 10 10 11 11 11 11 12 12 12 13 12 12 13 13 13 13 13 13 13 13 13 13 13 13 13 13 13 13 13 12
11 11 10 10 9 9 10 10 10 10 10 10 10 10 10 10 10 10 10 10 10 10 11 11 11 11 11 12 12 12 12 12 13 13 13 13 13 13 13 13 13 13 13 13 13 13 13 12 12
10 10 10 10 10 9 10 10 10 11 10 10 10 10 9 9 9 9 10 10 10 10 10 10 11 11 11 11 12 12 12 12 12 12 12 12 12 13 13 13 13 13 13 13 13 13 12 12 12
9 10 11 11 10 10 10 11 11 11 10 10 10 10 9 9 9 9 9 10 10 10 10 10 10 11 11 11 11 11 11 12 12 12 12 12 12 12 12 12 12 12 12 12 12 12 12 12 12
10 11 11 12 11 10 10 11 12 10 10 10 10 9 9 9 9 9 9 9 9 9 9 10 10 10 10 10 11 11 11 11 11 12 12 12 12 12 12 12 12 12 12 12 12 12 12 11 11
12 11 11 11 11 11 10 11 12 10 10 10 10 9 9 9 9 9 9 9 9 9 9 9 10 10 10 10 10 11 11 11 11 11 11 12 11 11 11 12 12 12 11 11 11 11 11 11 11
11 11 11 11 11 10 10 11 12 11 10 10 10 9 9 9 8 8 9 9 9 9 9 9 9 10 10 10 10 10 10 10 10 11 11 11 11 11 11 11 11 11 11 11 11 11 11 10 10
10 10 11 11 11 10 10 11 12 11 10 10 10 9 9 9 8 8 8 8 8 8 9 9 9 9 9 10 10 9 9 10 10 10 10 10 10 11 11 11 11 11 11 11 10 10 10 10 10
10 10 11 11 10 10 10 11 12 11 11 10 10 9 9 8 8 8 8 8 8 8 8 8 8 9 9 9 9 9 9 9 9 10 10 10 10 10 10 10 10 10 10 10 10 10 10 10 9
10 10 10 10 10 10 10 12 12 12 11 10 9 9 9 8 8 8 8 8 8 8 8 8 8 8 8 9 9 9 9 9 9 9 9 10 10 10 10 10 10 10 10 10 10 10 10 9 9
11 10 9 9 10 11 10 11 13 12 12 11 10 9 9 8 8 8 8 8 8 8 8 8 8 8 8 8 8 8 9 9 9 9 9 9 9 9 9 9 9 9 9 9 9 9 9 9 9
10 9 9 9 10 10 10 10 12 12 11 11 11 10 9 8 8 8 8 8 8 8 8 8 8 8 8 8 8 8 8 8 9 9 9 9 9 9 9 9 9 9 9 9 9 9 9 9 8
9 9 9 9 10 10 10 10 12 12 11 11 11 9 9 8 8 8 8 8 8 8 8 8 8 8 8 8 8 8 8 8 8 8 8 8 8 8 9 9 9 9 9 9 8 8 8 8 8
9 11 11 11 12 12 10 10 11 11 11 10 10 9 8 8 7 8 7 8 8 8 8 8 8 8 8 8 8 8 8 8 8 8 8 8 8 8 8 8 8 8 8 8 8 8 8 8 7
10 10 11 11 12 12 10 10 12 11 10 9 9 8 8 8 8 8 8 8 8 8 8 8 8 8 8 8 8 8 8 8 8 8 8 8 8 8 8 8 8 8 8 8 8 7 7 7 7
10 10 10 10 10 10 12 12 12 11 10 9 9 8 8 7 7 7 7 7 8 8 8 8 8 8 8 8 8 8 8 8 8 8 8 8 8 8 8 8 7 7 7 7 7 7 7 7 7
9 9 9 10 10 11 12 12 12 11 10 10 9 8 8 7 7 7 7 7 7 8 8 8 8 8 8 8 8 8 8 8 8 8 8 8 8 7 7 7 7 7 7 7 7 7 6 6 6
9 9 9 10 10 11 11 12 11 10 10 9 9 8 7 7 7 7 7 7 7 7 8 8 8 8 8 8 8 7 7 7 7 7 7 7 7 7 7 7 7 7 7 6 6 6 6 6 6
9 9 10 10 10 10 11 12 10 9 9 8 8 7 7 7 6 7 7 7 7 7 7 7 8 8 8 7 7 7 7 7 7 7 7 7 7 7 7 6 6 6 6 6 6 6 6 5 5

GEFSSGP_850_meantemp_192.txt.gz
Temperature
15 15 15 16 16 16 18 20 21 21 21 20 19 20 20 20 19 17 15 15 15 15 15 15 15 15 15 15 15 16 15 15 15 15 15 16 15 15 16 16 16 16 16 16 16 15 15 16 15
15 15 16 17 16 17 18 19 20 19 19 19 19 19 20 19 18 16 15 15 15 15 15 15 15 15 15 15 15 15 15 15 15 15 15 15 15 15 15 15 16 15 15 16 16 15 15 15 15
14 15 16 16 17 17 18 19 18 19 18 18 19 19 19 18 16 15 15 15 15 14 15 15 15 15 15 15 15 15 15 15 15 15 15 15 15 15 15 15 15 15 15 15 15 15 15 15 15
14 15 17 16 17 18 19 18 18 18 18 18 18 18 17 16 15 15 15 15 14 14 14 14 14 14 14 15 15 15 15 15 15 15 15 15 15 15 15 15 15 15 15 15 15 15 15 15 15
14 16 16 16 17 18 18 18 17 17 17 18 18 17 16 15 15 15 14 14 14 14 14 14 14 14 14 14 14 15 15 15 15 15 15 15 15 15 15 15 15 15 15 15 15 15 15 15 15
15 16 15 15 17 18 18 17 17 17 17 17 17 16 15 15 14 14 14 14 13 13 13 13 14 14 14 14 14 14 14 14 15 15 15 15 15 15 15 15 15 15 15 15 15 14 14 14 14
15 15 15 16 16 17 17 17 16 16 16 16 16 15 15 14 14 14 13 13 13 13 13 13 13 13 14 14 14 14 14 14 14 14 14 14 14 14 14 14 14 15 15 14 14 14 14 14 14
14 14 15 16 16 16 16 16 16 15 15 15 15 15 14 13 13 13 13 13 12 12 12 13 13 13 13 14 14 14 14 14 14 14 14 14 14 14 14 14 14 14 14 14 14 14 14 14 14
14 13 14 15 15 15 15 15 15 15 14 14 14 14 13 13 13 12 12 12 12 12 12 12 12 13 13 13 13 13 14 14 14 14 14 14 14 14 14 14 14 14 14 14 14 14 14 14 14
14 12 14 15 14 14 14 14 14 14 14 14 14 13 13 13 12 12 12 11 11 12 12 12 12 12 12 13 13 13 13 13 13 13 13 13 13 13 13 14 13 13 14 14 14 13 13 13 13
14 13 14 14 14 13 13 13 13 13 12 13 13 13 12 12 12 11 11 11 11 11 11 11 12 12 12 12 12 13 13 13 13 13 13 13 13 13 13 13 13 13 13 13 13 13 13 13 13
14 14 14 13 13 13 12 12 12 12 12 12 12 12 12 12 11 11 11 11 11 11 11 11 11 12 12 12 12 12 12 13 12 13 12 12 12 12 13 13 13 13 13 13 13 13 12 12 12
13 13 13 13 12 12 12 12 12 12 12 12 12 12 11 11 11 11 11 11 11 11 11 11 11 11 11 12 11 12 12 12 12 12 12 12 12 12 12 12 12 12 12 13 13 12 12 12 12
13 13 13 13 12 12 12 12 12 12 12 12 12 12 11 11 11 11 10 10 10 10 10 10 11 11 11 11 11 11 12 12 12 12 12 12 12 12 12 12 12 12 12 12 12 12 12 12 11
12 12 12 13 13 13 12 11 12 13 12 12 12 12 11 11 11 10 10 10 10 10 10 10 10 10 11 11 11 11 11 12 12 12 12 12 12 12 12 12 12 12 12 12 12 12 12 11 11
13 12 12 13 13 13 11 10 13 13 13 12 12 12 11 11 11 10 10 10 10 10 10 10 10 10 10 10 11 11 11 11 11 12 12 12 12 12 12 12 12 12 12 12 12 12 11 11 11
13 12 12 13 13 13 12 11 12 13 13 12 12 12 11 11 10 10 10 10 10 9 9 9 9 9 10 10 10 10 10 11 11 11 11 11 11 11 11 12 12 12 12 12 11 11 11 11 11
12 12 12 13 13 13 12 11 12 13 13 12 12 12 11 11 10 10 10 9 9 9 9 9 9 9 9 9 10 10 10 10 10 11 11 11 11 11 11 11 11 11 11 11 11 11 11 11 10
12 12 12 12 13 12 11 11 12 13 12 12 12 11 11 11 10 10 9 9 9 9 9 8 8 9 9 9 9 9 10 10 10 10 11 11 11 11 11 11 11 11 11 11 11 11 10 10 10
12 11 12 12 13 12 11 11 12 12 12 12 12 11 11 10 10 10 9 9 9 8 8 8 8 8 8 8 9 9 9 9 10 10 10 10 10 10 10 10 11 11 11 10 10 10 10 10 10
12 11 11 11 11 12 11 11 12 12 13 12 12 11 10 10 10 9 9 8 8 8 8 8 8 8 8 8 8 8 8 9 9 9 9 10 10 10 10 10 10 10 10 10 10 10 10 10 9
11 12 11 11 10 10 11 9 11 12 12 12 11 11 10 10 9 9 9 8 8 8 8 8 8 8 8 8 8 8 8 8 8 9 9 9 9 10 9 10 10 10 10 10 10 9 9 9 9
11 11 11 11 10 10 11 10 10 12 11 11 11 11 10 10 9 9 9 8 8 8 8 8 7 8 8 8 7 7 7 8 8 8 8 9 9 9 9 9 9 9 9 9 9 9 9 9 9
11 11 11 10 9 9 10 10 10 11 11 11 11 11 10 9 9 8 8 8 8 8 7 7 7 7 7 7 7 7 7 7 8 8 8 8 8 9 9 9 9 9 9 9 9 9 8 8 8
11 9 9 9 9 10 11 10 10 11 11 11 10 10 10 9 9 8 8 8 8 7 7 7 7 7 7 7 7 7 7 7 8 8 8 8 8 8 8 8 8 8 8 8 8 8 8 8 8
10 10 9 9 10 10 11 9 10 12 11 11 11 10 9 9 8 8 8 8 7 7 7 7 7 7 7 7 7 7 7 7 7 7 8 8 8 8 8 8 8 8 8 8 8 8 8 8 8
10 9 10 9 9 9 10 11 11 11 10 10 10 10 9 9 8 8 8 8 7 7 7 7 7 7 7 7 7 7 7 7 7 7 7 7 7 8 8 8 8 8 8 7 7 8 8 7 7
10 10 9 8 9 9 11 11 9 10 10 10 9 9 9 9 8 8 8 7 7 7 7 7 7 6 6 6 7 7 7 7 7 7 7 7 7 7 7 7 7 7 7 7 7 7 7 7 7
9 9 9 9 9 9 9 10 11 10 10 9 9 9 9 8 8 7 7 7 7 7 7 7 7 6 6 7 6 7 7 7 7 7 7 7 7 7 7 7 7 7 7 7 7 7 6 6 6
10 10 9 8 8 9 8 9 11 10 10 10 10 9 9 8 8 7 7 7 7 7 7 6 6 6 6 7 7 6 6 6 6 7 7 7 7 7 7 7 7 7 7 6 6 6 6 6 6

GEFSSGP_850_meantemp_198.txt.gz
Temperature
15 15 15 16 12 10 12 13 14 15 15 17 17 16 15 15 15 15 14 14 15 15 15 15 15 15 15 15 16 16 16 15 15 15 15 16 16 16 16 16 16 16 15 15 15 15 15 15 15
15 15 15 15 10 11 12 13 14 15 16 17 17 16 15 15 15 15 14 14 15 15 15 15 15 15 15 15 15 15 15 15 15 15 15 15 16 16 15 16 16 15 15 15 15 15 15 15 15
15 15 15 10 10 11 13 14 14 15 16 16 16 16 15 14 14 14 14 15 15 15 15 15 15 15 15 15 15 15 15 15 15 15 15 15 15 15 15 15 15 15 15 15 15 15 15 15 15
15 15 14 10 12 12 13 13 13 14 15 16 15 14 14 14 14 14 14 14 14 14 14 14 14 14 14 14 14 15 15 15 15 15 15 15 15 15 15 15 15 15 15 15 15 15 15 15 14
14 14 11 10 12 12 12 13 14 13 14 15 14 13 13 13 14 14 14 14 14 14 14 14 14 14 14 14 14 14 15 15 15 15 15 15 15 15 15 15 15 15 15 15 15 15 14 14 14
14 11 9 10 12 12 12 13 14 13 13 14 14 13 13 13 13 13 13 13 14 14 14 13 14 14 14 14 14 14 14 14 15 15 15 15 15 15 15 15 15 15 15 15 15 14 14 14 14
12 9 10 11 11 12 12 13 13 12 12 13 14 12 12 13 13 13 13 13 13 13 13 13 13 13 13 14 14 14 14 14 14 14 15 15 15 14 14 14 14 14 14 14 14 14 14 14 13
13 9 11 10 11 11 12 13 13 13 12 13 13 12 12 12 13 13 13 13 13 13 13 13 13 13 13 13 13 13 13 14 14 14 14 14 14 14 14 14 14 14 14 14 14 14 14 13 13
13 8 9 11 11 11 12 12 12 13 13 12 12 12 12 12 12 12 12 12 12 12 12 12 12 13 13 13 13 13 13 13 13 14 14 14 14 14 14 14 14 14 14 14 14 14 13 13 13
11 8 10 11 11 11 11 11 12 12 11 11 12 12 12 12 12 12 12 12 12 12 12 12 12 12 12 12 13 13 13 13 13 13 13 13 13 13 14 14 14 14 14 13 13 13 13 13 13
11 9 10 11 12 12 11 11 11 11 10 11 11 11 11 11 11 11 11 11 11 11 11 11 11 11 12 12 12 12 13 13 13 13 13 13 13 13 13 13 13 13 13 13 13 13 13 13 13
11 11 11 11 12 11 11 11 11 11 11 12 11 11 11 11 11 11 11 11 11 11 11 11 11 11 11 12 12 12 12 12 13 13 13 13 13 13 13 13 13 13 13 13 13 13 13 13 12
10 10 11 12 12 11 11 10 10 11 11 11 11 11 11 11 11 11 11 11 11 11 11 11 11 11 11 11 11 12 12 12 12 12 12 12 12 12 13 13 13 13 13 12 12 12 13 12 12
10 10 11 11 11 11 10 10 10 11 12 11 11 11 11 11 11 11 11 11 11 11 11 11 10 10 10 11 11 11 11 12 12 12 12 12 12 12 12 12 12 12 12 12 12 12 12 12 12
11 10 9 10 10 11 10 9 9 11 11 11 11 11 11 11 11 11 10 10 10 10 10 10 10 10 10 10 11 11 11 11 11 11 11 11 11 12 12 12 12 12 12 12 12 12 12 12 11
10 9 8 10 10 10 10 8 9 11 11 11 11 11 11 11 11 10 10 10 10 10 10 10 10 10 10 10 10 10 10 11 11 11 11 11 11 11 11 12 11 11 11 11 11 11 11 11 11
8 8 8 9 10 10 9 8 9 11 10 10 10 10 10 10 10 10 10 10 10 10 10 10 10 10 10 10 10 10 10 10 10 10 10 11 11 11 11 11 11 11 11 11 11 11 11 11 11
8 8 8 9 10 9 8 8 9 10 10 9 10 10 10 10 10 10 10 10 10 10 10 10 10 10 9 9 9 9 9 9 10 10 10 10 11 11 11 11 11 11 11 11 11 11 11 11 10
9 9 8 9 10 9 8 8 9 9 9 9 9 9 10 10 10 10 9 9 9 9 9 9 9 9 9 9 9 9 9 9 9 9 10 10 10 10 10 10 11 11 11 11 11 10 10 10 10
9 8 8 8 9 9 8 8 9 9 9 9 9 9 9 9 9 9 9 9 9 9 9 9 9 9 9 9 9 8 8 9 9 9 9 10 10 10 10 10 10 10 10 10 10 10 10 10 10
9 8 8 8 8 9 8 8 8 9 9 9 9 9 9 9 9 9 9 9 9 9 8 8 8 8 8 8 8 8 8 8 8 8 9 9 9 9 9 10 10 10 10 10 10 10 10 10 9
8 9 9 8 7 6 7 7 8 8 8 8 8 9 9 9 9 9 9 8 8 8 8 8 8 8 8 8 8 8 8 8 8 8 8 8 9 9 9 9 9 9 9 9 9 10 9 10 9
8 9 8 8 7 6 6 6 7 7 8 8 8 8 9 9 9 8 8 8 8 8 8 8 8 8 8 8 7 7 7 7 7 8 8 8 8 8 8 9 9 9 9 9 9 9 9 9 9
9 8 8 6 6 7 7 6 7 6 8 8 8 8 8 8 8 8 8 8 8 8 8 8 7 7 7 7 7 7 7 7 7 7 7 7 8 8 8 8 8 8 9 9 9 9 8 8 8
8 7 6 6 6 7 7 6 7 7 8 8 7 8 8 8 8 8 8 8 8 7 7 7 7 7 7 7 7 7 7 7 7 7 7 7 7 7 7 7 8 8 8 8 8 8 8 8 8
7 7 7 7 7 6 6 6 7 8 8 8 8 8 8 8 8 7 7 7 7 7 7 7 7 7 7 7 7 6 6 6 6 6 7 7 7 7 7 7 7 7 7 7 8 7 7 7 8
7 6 7 6 6 6 6 6 7 8 7 7 7 7 7 7 7 7 7 7 7 7 7 7 7 6 6 6 6 6 6 6 6 6 6 6 7 7 7 7 7 7 7 7 7 7 7 7 7
8 7 5 6 6 7 7 6 6 7 7 6 6 6 7 7 7 7 7 7 7 7 7 7 6 6 6 6 6 6 6 6 6 6 6 6 6 6 7 7 7 7 7 7 7 7 7 7 7
7 7 6 5 5 6 6 7 7 7 7 6 6 7 7 7 7 7 7 7 7 7 6 6 6 6 6 6 6 5 6 6 6 6 6 6 6 6 6 6 6 6 6 6 6 6 6 6 6
7 7 6 6 6 5 5 6 8 7 7 6 6 7 7 7 7 7 7 6 6 6 6 6 6 6 5 5 5 5 5 5 5 5 6 5 5 6 6 6 6 6 6 6 6 6 6 6 6

GEFSSGP_850_meantemp_204.txt.gz
Temperature
14 15 15 15 12 9 11 12 12 12 13 14 14 14 14 14 14 14 14 14 15 15 14 14 14 14 14 15 15 15 15 15 15 15 15 15 15 15 15 15 15 15 15 15 15 15 15 15 15
14 15 15 14 10 10 11 11 11 12 13 14 14 14 13 13 14 14 14 14 14 14 14 14 14 14 14 14 15 15 15 15 15 15 15 15 15 15 15 15 15 15 15 15 15 15 15 15 15
14 15 15 9 9 10 12 12 11 12 13 14 13 14 13 13 13 13 14 14 14 14 14 14 14 14 14 14 14 14 15 15 15 15 15 15 15 15 15 15 15 15 15 15 15 15 14 14 14
15 15 13 9 11 10 11 11 11 11 13 13 13 13 13 13 13 13 14 14 14 14 14 14 14 14 14 14 14 14 14 14 15 15 15 15 15 15 15 15 15 15 15 15 14 14 14 14 14
14 14 9 9 10 10 10 11 11 11 11 12 12 12 12 13 13 13 13 13 14 13 13 13 13 14 14 14 14 14 14 14 14 14 14 15 15 15 15 15 15 15 15 14 14 14 14 14 14
14 10 9 9 10 10 10 11 11 11 11 12 12 11 12 12 13 13 13 13 13 13 13 13 13 13 13 14 14 14 14 14 14 14 14 14 14 15 15 14 14 14 14 14 14 14 14 14 14
12 8 9 10 9 10 11 11 11 10 10 11 12 11 12 12 12 12 12 12 12 13 13 13 13 13 13 13 13 13 14 14 14 14 14 14 14 14 14 14 14 14 14 14 14 14 14 14 14
12 8 9 8 9 10 11 11 11 11 11 12 12 11 11 12 12 12 12 12 12 12 12 12 13 13 13 13 13 13 13 13 13 13 13 14 14 14 14 14 14 14 14 14 14 14 13 13 13
12 8 8 9 9 10 10 10 11 11 11 11 11 12 12 12 12 12 12 12 12 12 12 12 12 12 12 13 13 13 13 13 13 13 13 13 14 14 14 14 14 14 13 13 13 13 13 13 13
10 7 9 10 9 10 10 10 10 10 10 10 11 11 12 11 11 11 11 11 11 11 11 12 12 12 12 12 12 12 13 13 13 13 13 13 13 13 13 13 13 13 13 13 13 13 13 13 13
9 8 9 10 10 10 10 10 10 10 9 10 11 11 11 11 11 11 11 11 11 11 11 11 11 11 11 12 12 12 12 12 12 12 12 12 13 13 13 13 13 13 13 13 13 13 12 12 12
9 9 9 10 10 10 10 10 9 9 10 11 11 11 11 11 11 11 11 11 11 11 11 11 11 11 11 11 11 11 11 11 12 12 12 12 12 12 13 12 12 12 12 12 12 12 12 12 12
8 9 10 10 10 10 10 9 9 9 11 11 11 11 11 11 11 11 11 11 11 11 11 11 11 10 10 11 11 11 11 11 11 12 12 12 12 12 12 12 12 12 12 12 12 12 12 12 12
9 9 9 9 9 9 9 9 8 10 11 11 11 11 11 11 11 11 11 11 11 11 11 11 10 10 10 10 10 10 11 11 11 11 11 11 11 11 11 12 12 12 12 12 11 12 12 12 11
9 8 8 8 9 9 9 8 7 10 10 10 10 10 11 10 11 10 10 10 10 10 10 10 10 10 10 10 10 10 10 10 10 11 11 11 11 11 11 11 11 11 11 11 11 11 11 11 11
8 8 7 8 8 8 8 8 9 10 10 9 10 10 10 10 10 10 10 10 10 10 10 10 10 10 10 10 10 10 10 10 10 10 10 10 11 11 11 11 11 11 11 11 11 11 11 11 11
7 7 7 8 8 8 7 7 8 9 9 9 9 9 10 10 10 10 10 10 10 10 10 10 10 10 10 10 10 10 9 10 10 10 10 10 10 10 10 10 10 11 11 10 10 10 10 10 10
8 7 7 7 8 7 7 7 7 8 8 8 8 9 9 9 10 10 10 10 10 9 9 9 9 9 9 9 9 9 9 9 9 9 9 9 9 10 10 10 10 10 10 10 10 10 10 10 10
8 7 7 7 8 7 6 7 7 8 7 7 8 8 9 9 10 9 9 9 9 9 9 9 9 9 9 9 9 9 9 9 9 9 9 9 9 9 9 9 9 10 10 10 10 10 10 10 9
7 7 7 7 7 7 6 6 7 7 7 7 7 8 8 9 9 9 9 9 9 9 9 9 8 9 9 8 8 8 8 8 8 8 8 8 8 9 9 9 9 9 9 9 9 9 9 9 9
7 7 7 7 7 7 6 6 7 7 7 7 8 8 8 9 9 9 9 9 9 9 8 8 8 8 8 8 8 8 8 8 8 8 8 8 8 8 9 9 9 9 9 9 9 9 9 9 9
7 7 7 7 6 5 6 6 7 7 6 6 7 7 8 8 9 9 9 8 8 8 8 8 8 8 8 8 8 8 8 8 8 8 8 8 8 8 8 8 8 8 8 8 9 8 9 9 9
7 7 7 7 6 5 5 5 6 6 7 7 6 7 8 8 8 8 8 8 8 8 8 8 8 8 8 8 8 8 7 7 7 7 8 8 7 8 8 8 8 8 8 8 8 8 8 8 8
7 6 6 5 5 6 6 5 6 5 7 7 7 7 7 8 8 8 8 8 8 8 8 7 7 7 7 7 7 7 7 7 7 7 7 7 7 7 7 7 7 8 8 8 8 8 8 8 8
7 6 6 6 5 6 5 5 6 6 6 6 6 7 7 8 8 8 8 8 8 7 7 7 7 7 7 7 7 7 7 7 6 6 7 7 7 7 7 7 7 7 7 7 7 7 7 7 7
6 7 6 7 6 5 5 5 6 6 6 7 7 7 7 7 7 7 7 7 7 7 7 7 7 7 6 6 6 6 6 6 6 6 6 6 7 7 7 7 7 7 7 7 7 7 7 7 7
6 6 6 5 5 4 5 5 5 6 6 6 6 6 7 7 7 7 7 7 7 7 7 7 6 6 6 6 6 6 6 6 6 6 6 6 6 6 6 6 6 6 6 6 6 6 6 6 6
6 5 4 5 6 6 6 5 5 6 6 5 5 5 6 7 7 7 7 7 7 7 6 6 6 6 6 6 5 5 5 5 5 5 5 6 6 6 6 6 6 6 6 6 6 6 6 6 6
5 5 5 4 4 5 5 6 6 6 6 5 5 6 6 7 7 7 7 6 6 6 6 6 6 6 5 5 5 5 5 5 5 5 5 5 5 5 6 5 6 6 6 6 5 6 6 6 6
5 5 4 5 4 3 4 5 6 5 5 5 5 6 6 7 7 7 6 6 6 6 6 5 5 5 5 5 5 5 5 5 4 5 5 5 5 5 5 5 5 5 5 5 5 5 5 5 5

GEFSSGP_850_meantemp_210.txt.gz
Temperature
15 15 15 16 19 20 20 19 18 18 18 17 16 17 19 19 19 18 14 14 14 14 14 14 14 15 15 15 15 15 15 15 15 15 15 15 15 15 15 15 15 15 15 15 15 15 15 15 15
15 15 15 17 20 20 19 18 18 18 17 15 16 16 17 17 15 14 13 13 13 13 14 14 14 14 14 14 15 15 15 15 15 15 15 15 15 15 15 15 15 15 15 15 15 15 15 15 15
15 15 16 18 19 20 19 18 18 16 15 15 16 16 16 16 14 13 13 13 13 13 13 14 14 14 14 14 14 14 15 15 15 15 15 15 15 15 15 15 15 15 15 15 15 15 15 14 15
15 15 16 18 18 18 17 17 16 16 15 15 15 16 14 13 13 13 13 13 13 13 13 14 14 14 14 14 14 14 14 14 14 15 15 15 15 15 15 15 14 14 14 14 14 14 14 14 14
14 16 18 17 17 17 16 15 15 16 16 15 15 16 15 13 13 13 13 13 13 13 13 13 13 13 14 14 14 14 14 14 14 14 14 14 15 15 14 14 14 14 14 14 14 14 14 14 14
15 17 18 18 17 16 16 14 15 16 16 15 15 15 15 13 13 13 13 13 13 13 13 13 13 13 13 13 13 13 13 14 14 14 14 14 14 14 14 14 14 14 14 14 14 14 14 14 14
16 17 17 17 16 16 15 14 15 16 16 15 14 15 14 12 12 12 12 13 13 13 13 13 13 13 13 13 13 13 13 13 13 14 14 14 14 14 14 14 14 14 14 14 14 14 14 14 14
14 16 16 16 16 16 15 13 13 14 15 13 13 15 14 12 12 12 12 12 12 12 12 12 12 12 13 13 13 13 13 13 13 13 13 13 14 14 14 14 14 14 14 14 14 13 13 13 13
13 16 16 16 15 15 14 13 13 12 13 12 12 13 12 12 12 12 12 12 12 12 12 12 12 12 12 12 12 13 13 13 13 13 13 13 13 13 13 13 13 13 13 13 13 13 13 13 13
14 15 15 15 15 14 13 13 13 13 13 13 12 12 12 12 11 11 11 11 11 11 11 11 12 12 12 12 12 12 12 12 12 12 13 13 13 13 13 13 13 13 13 13 13 13 13 13 13
13 14 14 13 12 12 13 12 12 13 14 14 13 12 11 11 11 11 11 11 11 11 11 11 11 11 11 11 11 12 12 12 12 12 12 12 12 13 13 12 12 12 12 12 12 12 12 12 12
13 13 12 12 11 11 12 12 12 12 13 12 12 11 11 11 11 11 11 11 11 11 11 11 11 11 11 11 11 11 11 11 12 12 12 12 12 12 12 12 12 12 12 12 12 12 12 12 12
13 12 11 11 10 11 11 11 12 12 11 11 11 11 10 10 10 11 11 11 11 11 11 11 11 11 11 11 11 11 11 11 11 11 11 11 11 12 12 12 12 12 12 12 12 12 12 12 12
12 12 11 11 11 10 11 11 11 12 11 10 10 10 10 10 10 10 10 10 11 11 11 11 11 11 10 10 10 10 10 11 11 11 11 11 11 11 11 11 11 11 11 11 11 11 11 11 11
10 12 12 12 11 11 11 12 12 11 11 10 10 10 10 10 10 10 10 10 10 10 11 10 11 10 10 10 10 10 10 10 10 10 10 11 11 11 11 11 11 11 11 11 11 11 11 11 11
12 12 13 13 11 10 11 13 14 11 10 11 11 10 10 10 10 10 10 10 10 10 10 10 10 10 10 10 10 10 10 10 10 10 10 10 10 10 10 10 10 11 11 11 10 10 10 10 10
12 13 13 13 11 11 11 13 13 10 10 11 11 10 10 10 10 10 10 10 10 10 10 10 10 10 10 10 10 10 10 10 10 10 9 10 10 10 10 10 10 10 10 10 10 10 10 10 10
13 13 13 13 12 11 11 12 13 11 11 11 11 10 10 9 10 10 10 10 10 10 10 10 10 10 10 10 9 9 9 9 9 9 9 9 9 9 10 10 10 10 10 10 10 10 10 10 10
12 12 12 12 11 10 11 12 12 12 11 11 11 10 10 9 9 9 9 9 9 9 9 9 9 9 9 9 9 9 9 9 9 9 9 9 9 9 9 9 9 9 9 10 9 9 9 9 9
11 11 12 12 10 10 11 11 12 12 11 11 10 10 10 9 9 9 9 9 9 9 9 9 9 9 9 9 9 8 8 8 8 8 8 8 8 8 9 9 9 9 9 9 9 9 9 9 9
10 11 11 11 10 10 10 12 13 12 11 10 10 9 9 9 8 8 9 9 9 9 9 9 9 8 8 8 8 8 8 8 8 8 8 8 8 8 8 8 8 8 8 8 9 9 9 9 9
11 11 10 10 10 11 10 12 13 12 11 11 10 10 9 8 8 8 8 8 8 8 9 8 8 8 8 8 8 8 8 8 8 8 8 8 8 8 8 8 8 8 8 8 8 8 8 8 8
10 10 9 9 10 10 10 10 13 11 11 12 11 10 9 8 8 8 8 8 8 8 8 8 8 8 8 8 7 7 7 7 7 7 7 7 7 7 7 7 8 8 8 8 8 8 8 8 8
9 9 9 9 9 10 11 10 13 12 12 12 11 10 8 7 7 7 7 8 8 8 8 8 8 7 7 7 7 7 7 7 7 7 7 7 7 7 7 7 7 7 7 7 7 8 7 8 7
9 10 10 10 10 11 10 10 12 12 11 11 10 9 8 7 7 7 7 7 7 7 7 7 7 7 7 7 7 7 7 7 7 6 6 6 6 7 7 7 7 7 7 7 7 7 7 7 7
9 10 10 11 11 12 9 10 12 11 10 9 8 8 7 7 7 6 7 7 7 7 7 7 7 7 7 7 6 6 6 6 6 6 6 6 6 7 7 6 6 6 6 7 6 6 7 7 7
9 9 10 10 9 9 11 11 11 10 9 9 8 8 7 7 6 6 6 6 7 7 7 7 7 7 7 6 6 6 6 6 6 6 6 6 6 6 6 6 6 6 6 6 6 6 6 6 6
8 8 8 9 9 10 11 11 12 11 10 9 9 8 7 7 6 6 6 6 6 6 6 6 6 6 6 6 6 6 6 6 6 5 5 5 5 5 6 6 6 6 6 6 6 6 6 6 6
7 7 8 9 9 10 10 12 11 11 10 10 9 8 7 7 6 6 6 6 6 6 6 6 6 6 6 6 6 5 5 5 5 5 5 5 5 5 5 5 5 5 5 5 5 5 5 5 6
7 8 7 8 8 8 9 11 10 9 9 8 8 7 6 6 6 6 5 5 5 5 5 5 5 5 5 5 5 5 5 5 5 4 4 4 4 4 4 4 4 5 5 5 5 5 5 5 5

GEFSSGP_850_meantemp_216.txt.gz
Temperature
16 16 16 17 17 17 18 20 22 21 21 21 20 21 20 19 19 16 15 15 15 15 15 15 15 15 15 15 15 15 15 15 15 15 15 15 15 15 15 15 15 15 15 15 15 15 15 15 15
15 16 16 17 17 17 19 20 21 21 20 20 19 20 20 19 17 16 15 15 15 14 14 15 15 15 15 15 15 15 15 15 15 15 15 15 15 15 15 15 15 15 15 15 15 15 15 15 15
15 16 17 17 18 18 20 20 20 20 19 19 19 19 19 18 16 15 15 15 14 14 14 14 14 15 15 15 15 15 15 15 15 15 15 15 15 15 15 15 15 15 15 15 15 15 15 14 15
15 16 18 17 17 19 20 20 19 19 19 19 19 18 17 16 15 15 15 14 14 14 14 14 14 14 14 14 15 15 15 14 14 15 15 15 15 15 14 15 15 15 14 14 14 14 14 14 14
16 17 17 17 18 19 20 20 19 19 19 19 19 18 17 15 15 15 14 14 14 14 14 14 14 14 14 14 14 14 14 14 14 14 14 14 14 14 14 14 14 14 14 14 14 14 14 14 14
16 17 16 16 18 19 20 20 19 19 19 19 18 18 16 15 14 14 14 14 13 13 13 13 13 13 14 14 14 14 14 14 14 14 14 14 14 14 14 14 14 14 14 14 14 14 14 14 14
16 16 16 18 18 19 19 19 18 18 18 18 18 17 16 14 14 13 13 13 13 13 13 13 13 13 13 13 13 13 13 13 14 14 14 14 14 14 14 14 14 14 14 14 14 14 14 14 14
15 16 17 17 18 18 18 18 17 17 17 17 17 16 15 14 14 13 13 13 13 13 13 13 13 13 13 13 13 13 13 13 13 13 14 14 14 13 13 13 13 14 14 14 14 14 14 14 14
15 15 15 17 18 18 18 17 17 16 16 16 16 15 14 14 13 13 12 12 12 12 12 12 12 12 12 12 12 12 13 13 13 13 13 13 13 13 13 13 13 13 13 13 13 13 13 13 13
15 14 16 17 17 17 17 17 16 16 15 15 15 15 14 13 13 13 12 12 12 12 12 12 12 12 12 12 12 12 12 12 12 12 13 13 13 13 13 13 13 13 13 13 13 13 13 13 13
15 14 16 16 16 16 16 16 16 15 15 15 15 14 14 13 12 12 12 12 12 12 12 12 12 12 12 12 12 12 12 12 12 12 12 12 12 12 12 13 12 12 13 12 12 12 13 13 13
15 15 16 15 15 15 15 15 15 15 15 15 15 14 14 13 12 12 12 11 11 11 11 12 12 12 12 11 11 11 11 11 12 12 12 12 12 12 12 12 12 12 12 12 12 12 12 12 12
15 15 15 15 14 14 14 14 14 14 14 14 14 14 13 13 12 12 11 11 11 11 11 11 11 11 11 11 11 11 11 11 11 11 11 11 11 12 12 12 12 12 12 12 12 12 12 12 12
15 14 15 14 14 14 13 13 13 14 14 14 14 13 13 12 12 12 11 11 11 11 11 11 11 11 11 11 11 11 11 11 11 11 11 11 11 11 11 11 11 11 11 11 12 11 11 11 11
14 13 13 14 14 14 13 12 13 14 14 14 13 13 13 12 12 11 11 11 11 10 11 11 11 11 11 11 11 11 11 11 11 11 10 11 11 11 11 11 11 11 11 11 11 11 11 11 11
14 13 13 14 14 13 12 11 14 14 14 14 13 13 13 12 12 11 11 11 10 10 10 10 10 10 10 10 10 10 10 10 10 10 10 10 10 10 10 10 10 11 11 11 11 11 11 11 11
13 12 13 14 14 14 12 12 14 14 14 13 13 13 12 12 11 11 11 10 10 10 10 10 10 10 10 10 10 10 10 10 10 10 10 10 10 10 10 10 10 10 10 10 10 10 10 10 10
12 13 14 14 14 13 12 12 13 14 14 13 13 13 13 12 11 11 11 10 10 10 10 10 10 10 10 10 10 10 10 10 10 10 10 10 10 10 10 10 10 10 10 10 10 10 10 10 10
13 13 13 14 14 13 12 12 13 13 13 13 13 13 12 12 11 11 10 10 10 10 10 9 9 9 9 10 10 10 10 10 9 9 9 9 9 9 9 9 9 9 9 10 10 9 9 9 9
13 12 12 13 14 13 12 12 13 13 13 13 13 13 12 12 11 11 10 10 9 9 9 9 9 9 9 9 9 9 9 9 9 9 9 9 9 9 9 9 9 9 9 9 9 9 9 9 9
12 12 12 12 13 12 11 11 12 13 13 13 13 13 12 12 11 10 10 9 9 9 9 9 9 9 9 9 9 9 9 9 9 9 9 9 9 8 8 8 8 8 8 8 8 8 8 8 8
11 12 12 11 10 10 11 9 11 12 12 12 12 12 12 11 11 10 9 9 8 8 9 9 9 8 9 9 9 8 8 8 8 8 8 8 8 8 8 8 8 8 8 8 8 8 8 8 8
11 11 11 11 10 10 11 9 10 12 12 12 11 12 11 11 10 10 9 8 8 8 8 8 8 8 8 8 8 8 8 8 8 8 8 8 8 8 8 8 8 7 7 7 7 7 7 7 8
10 10 10 10 9 8 10 9 10 11 12 12 11 11 11 10 10 9 9 8 8 8 8 8 8 8 8 8 8 8 7 7 7 7 7 7 7 7 7 7 7 7 7 7 7 7 7 7 7
9 9 8 8 8 8 10 10 9 12 12 12 11 11 11 10 9 9 8 8 7 7 7 7 7 7 7 7 7 7 7 7 7 7 7 7 7 7 7 7 7 7 7 7 7 7 7 7 7
9 9 8 8 8 9 10 9 10 12 11 12 11 11 10 9 9 8 8 7 7 7 7 7 7 7 7 7 7 7 7 7 7 7 7 7 7 7 6 6 6 6 6 6 7 7 7 6 6
9 8 9 8 8 8 9 10 11 11 10 10 10 10 9 9 8 8 7 7 7 7 6 6 6 6 7 7 6 6 6 6 6 6 6 6 6 6 6 6 6 6 6 6 6 6 6 6 6
8 8 7 7 7 8 9 10 9 9 9 9 9 9 9 8 8 7 7 7 6 6 6 6 6 6 6 6 6 6 6 6 6 6 6 6 6 6 6 6 6 6 6 6 6 6 6 6 6
6 7 7 7 7 7 8 8 10 9 9 9 8 9 8 8 7 7 7 6 6 6 6 5 5 5 6 6 6 6 5 5 5 5 6 5 5 5 5 5 5 5 5 5 5 5 5 5 5
7 7 6 5 6 7 6 7 10 9 9 8 8 8 8 7 7 7 6 6 5 5 5 5 5 5 5 5 5 5 5 5 5 5 5 5 5 5 5 5 5 5 5 5 5 5 5 5 5

GEFSSGP_850_meantemp_222.txt.gz
Temperature
15 15 16 16 13 10 13 13 14 16 16 17 17 17 15 15 16 15 15 15 15 15 15 15 15 15 15 15 15 15 15 15 15 15 15 15 16 16 16 15 15 15 15 15 15 15 15 15 15
15 16 16 15 11 11 13 13 14 15 17 17 17 17 15 15 15 15 14 14 15 15 15 15 15 15 15 15 15 15 15 15 15 15 15 15 15 15 15 15 15 15 15 15 15 15 15 15 15
15 16 16 11 11 12 14 14 14 15 17 17 16 16 15 15 14 14 14 14 14 15 15 14 14 14 14 15 15 15 15 15 15 15 15 15 15 15 15 15 15 15 15 15 15 15 15 14 14
15 16 14 11 12 12 13 14 15 15 17 17 16 15 15 15 15 15 15 14 14 14 14 14 14 14 14 14 14 14 15 15 15 15 15 15 15 15 15 15 15 14 15 15 15 15 14 14 14
15 15 11 11 12 12 13 14 15 15 16 16 16 14 14 14 14 14 15 14 14 14 14 14 14 14 14 14 14 14 14 14 14 14 14 14 14 14 14 14 14 14 14 14 14 14 14 14 14
15 12 10 11 12 13 13 16 16 15 15 16 15 13 13 14 14 14 14 14 14 14 14 14 14 14 14 14 14 14 14 14 14 14 14 14 14 14 14 14 14 14 14 14 14 14 14 14 14
13 10 10 11 12 13 14 16 15 14 14 15 16 13 13 13 14 14 14 14 14 14 13 13 13 13 13 13 13 14 14 14 14 14 14 14 14 14 14 14 14 14 14 14 14 14 14 14 13
14 10 12 11 12 13 14 15 16 15 15 16 15 13 13 13 13 13 13 13 13 13 13 13 13 13 13 13 13 13 13 13 13 13 13 13 13 13 13 13 13 14 13 14 14 14 14 14 13
14 10 10 11 13 13 14 14 15 15 15 15 15 15 15 14 13 13 13 13 13 13 13 12 12 12 13 13 13 13 13 13 13 13 13 13 13 13 13 13 13 13 13 13 13 13 13 13 13
12 9 11 12 13 13 14 14 14 14 14 14 14 14 14 14 13 13 13 13 13 13 12 12 12 12 12 12 12 12 12 12 12 12 12 13 13 13 13 13 13 13 13 13 13 13 13 13 13
11 10 11 12 13 14 13 14 14 13 12 13 13 14 13 13 13 13 13 13 13 12 12 12 12 12 12 12 12 12 12 12 12 12 12 12 12 12 12 13 12 12 12 12 12 12 12 12 12
11 11 12 13 13 13 13 13 13 13 13 14 14 14 13 13 13 13 13 13 12 12 12 12 12 12 12 12 12 12 12 12 12 12 12 12 12 12 12 12 12 12 12 12 12 12 12 12 12
11 11 12 13 13 13 13 12 12 12 14 14 14 13 13 13 13 13 13 12 12 12 12 12 12 11 11 12 12 12 12 12 12 11 11 11 12 12 12 12 12 12 12 12 12 12 12 12 12
11 11 11 12 12 12 12 11 11 12 13 13 13 13 13 13 13 12 12 12 12 12 12 11 11 11 11 11 11 11 11 11 11 11 11 11 11 11 12 12 12 12 12 12 12 12 12 12 12
11 10 10 11 11 12 11 10 10 13 13 12 12 12 12 12 12 12 12 12 12 11 11 11 11 11 11 11 11 11 11 11 11 11 11 11 11 11 11 11 11 11 11 11 11 11 11 11 11
10 9 9 10 10 11 10 10 10 12 12 11 12 12 12 12 12 12 12 12 11 11 11 11 11 11 11 11 11 11 11 11 11 10 11 11 11 11 11 11 11 11 11 11 11 11 11 11 11
9 8 9 10 10 10 9 9 10 12 11 11 11 11 12 12 12 12 11 11 11 11 11 10 10 10 10 10 10 10 10 10 10 10 10 10 10 10 10 10 10 10 10 10 10 10 10 10 10
8 8 9 9 10 9 8 8 9 11 10 10 11 11 11 11 11 11 11 11 11 11 10 10 10 10 10 10 10 10 10 10 10 10 10 10 10 10 10 10 10 10 10 10 10 10 10 10 10
9 9 9 9 10 9 8 9 9 10 9 9 10 10 11 11 11 11 11 11 11 10 10 10 10 10 10 10 10 9 9 9 9 9 10 10 10 10 9 9 9 9 9 9 9 9 9 9 9
9 8 8 8 9 9 8 8 8 9 9 10 10 10 11 11 11 11 11 10 10 10 10 10 9 9 9 9 9 9 9 9 9 9 9 9 9 9 9 9 9 9 9 9 9 9 9 9 9
8 8 8 8 8 8 8 7 8 9 9 10 10 10 11 11 10 10 10 10 10 10 10 10 9 9 9 9 9 9 8 9 8 9 9 9 9 9 9 9 9 9 9 9 9 8 8 8 8
8 8 8 8 7 6 7 6 7 8 8 8 9 9 10 10 10 10 10 10 10 10 9 9 9 9 9 8 8 8 8 8 8 8 8 8 8 8 8 8 8 8 8 8 8 8 8 8 8
8 8 8 8 7 6 6 6 6 7 7 8 7 8 9 10 10 10 10 10 9 9 9 9 9 8 8 8 8 8 8 8 8 8 8 8 8 8 8 8 8 8 8 8 8 8 8 8 8
7 7 7 6 6 6 6 6 6 6 7 7 7 8 9 9 9 9 9 9 9 9 9 8 8 8 8 8 8 7 7 7 7 7 7 7 8 8 8 8 8 8 8 7 7 7 7 7 7
7 6 6 6 5 6 6 6 6 7 7 7 7 8 9 9 9 9 9 8 8 8 8 8 8 7 7 7 7 7 7 7 7 7 7 7 7 7 7 7 7 7 7 7 7 7 7 7 7
5 6 5 6 6 5 6 5 6 7 7 7 8 8 8 8 8 8 8 8 8 8 8 7 7 7 7 7 7 7 7 7 7 7 7 7 7 7 7 7 7 7 7 7 7 7 7 7 6
5 5 5 5 5 5 5 5 6 6 6 6 6 6 7 7 7 8 8 8 7 7 7 7 7 7 6 6 6 6 6 6 6 6 6 6 7 6 6 6 6 6 6 6 6 6 6 6 6
5 5 4 4 5 5 5 5 5 5 5 5 5 5 6 7 7 7 7 7 7 7 7 6 6 6 6 6 6 6 6 6 6 6 6 6 6 6 6 6 6 6 6 6 6 6 6 6 6
4 4 4 3 4 5 5 4 5 5 5 4 4 5 5 6 6 6 6 6 6 6 6 6 6 6 6 6 5 5 6 6 6 6 6 6 6 6 6 6 6 6 6 6 5 5 5 5 5
3 3 3 3 3 3 3 4 4 4 4 4 4 4 5 5 5 5 5 5 6 6 5 5 5 5 5 5 5 5 5 5 5 5 5 5 5 5 5 5 5 5 5 5 5 5 5 5 5

GEFSSGP_850_meantemp_228.txt.gz
Temperature
14 15 15 16 12 10 12 12 12 13 13 14 15 15 14 14 14 15 15 15 15 15 15 14 14 14 14 14 15 15 15 15 15 15 15 15 15 15 15 15 15 15 15 15 15 15 15 15 15
14 15 15 15 10 11 12 12 12 12 14 15 15 15 14 14 15 15 15 15 15 15 15 14 14 14 14 14 14 14 15 15 15 15 15 15 15 15 15 15 15 15 15 15 15 15 15 15 15
15 15 15 10 10 11 13 13 12 13 14 15 14 14 14 14 14 15 15 15 15 15 14 14 14 14 14 14 14 14 14 14 15 15 15 15 15 15 15 15 15 15 15 15 15 15 15 14 14
15 15 13 10 11 11 12 13 12 13 14 14 14 13 14 14 14 14 15 15 14 14 14 14 14 14 14 14 14 14 14 14 14 14 15 15 15 14 15 14 14 15 15 15 14 14 14 14 14
15 14 10 10 11 11 10 11 12 13 13 14 14 13 14 14 14 14 14 14 14 14 14 14 14 14 14 14 14 14 14 14 14 14 14 14 14 14 14 14 14 14 14 14 14 14 14 14 14
14 10 9 10 11 11 11 12 13 12 13 13 13 13 13 14 14 14 14 14 14 14 14 13 13 14 14 14 14 14 14 14 14 14 14 14 14 14 14 14 14 14 14 14 14 14 14 14 14
12 8 10 10 10 11 12 13 13 12 12 13 14 12 13 14 14 14 14 13 13 13 13 13 13 13 13 13 13 13 14 14 14 14 14 14 14 14 14 14 14 14 14 14 14 14 14 14 13
13 8 10 9 10 11 12 13 13 13 13 14 14 13 13 14 14 13 13 13 13 13 13 13 13 13 13 13 13 13 13 13 13 13 13 13 13 14 14 14 13 13 13 13 13 13 13 13 13
13 8 9 9 10 11 12 12 13 13 13 13 13 14 14 14 13 13 13 13 13 13 13 12 13 13 13 13 13 13 13 13 13 13 13 13 13 13 13 13 13 13 13 13 13 13 13 13 13
11 8 10 10 10 11 12 12 13 13 12 12 13 13 14 13 13 13 13 13 13 13 12 12 12 12 12 12 12 12 12 12 12 12 13 13 13 13 13 13 13 13 13 13 13 13 13 12 13
9 9 10 10 11 12 12 12 12 12 11 12 13 13 13 13 13 13 13 13 13 13 12 12 12 12 12 12 12 12 12 12 12 12 12 12 12 12 12 12 13 13 13 12 12 12 12 12 12
9 9 10 11 11 11 11 11 11 11 12 13 13 13 13 12 12 13 12 13 12 12 12 12 12 12 12 12 12 12 12 12 12 12 12 12 12 12 12 12 12 12 12 12 12 12 12 12 12
9 9 10 10 11 11 11 10 10 11 12 12 12 12 12 12 12 12 12 12 12 12 12 12 12 12 11 11 11 11 11 11 11 11 11 11 11 12 12 12 12 12 12 12 12 12 12 12 12
9 9 9 10 10 10 10 9 9 11 12 12 12 12 12 12 12 12 12 12 12 12 12 12 11 11 11 11 11 11 11 11 11 11 11 11 11 11 11 11 11 12 12 11 11 11 11 11 11
9 8 9 9 9 10 9 8 8 11 11 11 11 11 11 11 11 12 12 12 12 12 12 11 11 11 11 11 11 11 11 11 11 11 11 11 11 11 11 11 11 11 11 11 11 11 11 11 11
8 8 8 9 9 9 9 8 9 10 10 10 10 11 11 11 11 11 11 11 11 11 11 11 11 11 11 11 10 11 11 10 10 10 10 10 10 10 10 10 10 11 10 10 11 11 11 10 10
7 7 7 8 8 8 8 7 8 10 9 9 9 10 10 10 11 11 11 11 11 11 11 11 10 10 10 10 10 10 10 10 10 10 10 10 10 10 10 10 10 10 10 10 10 10 10 10 10
7 7 7 7 8 7 7 6 7 8 8 8 9 9 9 10 11 11 11 11 11 10 10 10 10 10 10 10 10 10 10 10 10 10 10 10 10 10 10 10 10 10 10 10 10 10 10 10 10
7 7 7 7 7 7 6 6 7 7 7 7 7 8 9 10 10 10 10 10 10 10 10 10 10 10 10 10 9 9 9 9 9 9 9 9 9 9 9 9 9 9 9 9 9 9 9 9 9
6 6 6 6 7 7 6 6 6 6 6 7 7 7 8 9 10 10 10 10 10 10 10 10 10 10 10 9 9 9 9 9 9 9 9 9 9 9 9 9 9 9 9 9 9 9 9 9 9
6 6 6 6 6 6 6 6 6 6 6 7 7 7 8 8 9 9 9 10 10 10 10 10 10 9 9 9 9 9 9 9 8 8 9 8 8 9 9 8 9 9 9 9 9 9 9 9 8
6 6 6 6 5 5 6 5 5 5 5 5 6 6 7 8 8 9 9 9 9 9 9 9 9 9 9 9 9 9 9 8 8 8 8 8 8 8 8 8 8 8 8 8 8 8 8 8 8
5 6 5 5 5 5 5 5 5 5 5 5 5 6 6 7 8 8 8 9 9 9 9 9 9 9 9 9 8 8 8 8 8 8 8 8 8 8 8 8 8 8 8 8 8 8 8 8 8
5 5 5 4 4 5 5 5 4 4 5 5 5 6 6 6 7 8 8 8 8 8 8 8 8 8 8 8 8 8 8 8 8 8 7 7 7 7 7 7 7 7 7 8 8 8 7 7 7
5 4 4 4 4 5 5 4 4 4 4 4 4 5 5 6 6 7 7 7 7 8 8 8 8 8 8 8 8 8 7 7 7 7 7 7 7 7 7 7 7 7 7 7 7 7 7 7 7
4 4 4 4 4 4 4 3 3 4 4 4 4 4 4 5 6 6 6 6 7 7 7 7 7 7 7 7 7 7 7 7 7 7 7 7 7 7 7 7 7 7 7 7 7 7 7 7 7
3 3 3 3 3 3 3 3 3 4 3 3 3 3 3 4 5 5 6 6 6 6 6 6 6 7 6 6 6 6 6 6 6 6 6 6 6 6 6 6 6 6 6 6 6 6 6 6 6
3 2 2 2 3 4 3 3 3 3 2 2 1 2 2 3 3 4 5 5 5 5 5 6 6 6 6 6 6 6 6 6 6 6 6 6 6 6 6 6 6 6 6 6 6 6 6 6 6
2 2 1 1 2 2 3 3 2 2 1 1 1 1 1 2 2 3 3 4 4 5 5 5 5 5 5 5 5 5 5 5 5 5 5 5 5 5 5 5 6 6 6 6 6 6 6 6 6
2 1 1 1 1 0 1 2 1 0 0 1 1 1 1 1 2 2 3 3 3 4 4 4 4 4 4 4 5 5 5 5 5 5 5 5 5 5 5 5 5 5 5 5 5 5 5 5 5

GEFSSGP_850_meantemp_234.txt.gz
Temperature
15 15 15 16 19 20 21 20 19 19 19 18 17 18 20 21 21 20 15 15 15 15 15 15 15 15 15 15 15 15 15 15 15 15 15 15 15 15 15 15 15 15 15 15 15 15 15 15 15
15 15 15 17 20 21 21 20 19 19 18 16 16 17 18 19 17 15 15 15 15 14 14 14 15 15 15 15 14 14 15 15 15 15 15 15 15 15 15 15 15 15 15 15 15 15 15 15 15
15 15 16 19 20 21 21 19 19 18 16 16 17 17 18 17 15 15 15 15 14 14 14 14 14 14 14 14 14 14 14 14 15 15 15 15 15 15 15 15 15 15 15 15 15 15 15 14 14
15 15 17 19 19 19 19 19 17 17 16 16 17 17 16 15 14 14 15 14 14 14 14 14 14 14 14 14 14 14 14 14 14 15 14 14 15 14 14 14 15 15 15 15 14 14 14 14 14
15 16 18 18 18 18 18 17 16 18 18 17 16 18 16 14 14 14 14 14 13 13 14 14 14 14 14 14 14 14 14 14 14 14 14 14 14 14 14 14 14 14 14 14 14 14 14 14 14
15 17 18 19 19 18 17 16 16 17 17 16 16 17 16 14 14 14 14 14 13 13 13 13 13 13 13 13 14 14 14 14 14 14 14 14 14 14 14 14 14 14 14 14 14 14 14 14 14
16 17 18 18 18 18 17 15 16 17 17 16 16 17 16 13 13 14 14 13 13 13 13 13 13 13 13 13 13 13 14 14 14 14 14 14 14 14 14 14 14 14 14 14 14 14 14 14 13
14 17 17 17 17 17 16 15 15 16 16 15 14 16 16 13 13 13 13 13 13 13 13 13 13 13 13 13 13 13 13 13 13 13 13 13 13 14 13 13 14 14 14 14 14 13 13 13 13
13 16 17 17 17 17 15 15 14 13 14 13 13 14 13 13 13 13 13 13 13 13 13 13 13 12 12 12 13 13 13 13 13 13 13 13 13 13 13 13 13 13 13 13 13 13 13 13 13
14 16 16 16 16 16 15 15 14 14 14 14 13 12 13 13 12 12 12 12 12 12 12 12 12 12 12 12 12 12 12 12 12 12 12 12 12 12 13 13 13 13 13 13 13 13 13 13 13
14 15 14 14 13 13 14 14 13 14 15 14 14 13 12 12 12 12 12 12 12 12 12 12 12 12 12 12 12 12 12 12 12 12 12 12 12 12 12 12 12 12 12 13 13 12 12 12 12
13 13 13 13 11 12 13 13 13 13 14 13 12 12 11 11 11 11 11 12 12 12 12 12 12 12 12 12 12 12 12 12 12 12 12 12 12 12 12 12 12 12 12 12 12 12 12 12 12
13 12 11 11 11 11 11 12 12 12 12 11 11 11 11 11 11 11 11 11 11 11 12 12 12 11 11 11 11 11 11 12 12 12 12 12 12 12 12 12 12 12 12 12 12 12 12 11 11
12 11 11 11 11 11 11 12 11 11 11 10 10 10 10 10 10 10 11 11 11 11 11 11 11 11 11 11 11 11 11 11 11 11 11 11 11 11 11 11 11 11 12 11 11 11 11 11 11
10 11 12 11 11 11 11 12 12 11 10 10 10 10 10 10 10 10 11 11 11 11 11 11 11 11 11 11 11 11 11 11 11 11 11 11 11 11 11 11 11 11 11 11 11 11 11 11 11
11 12 13 12 11 11 11 13 13 10 10 10 10 10 9 9 10 10 10 10 11 11 11 10 10 10 10 10 10 10 10 10 11 11 11 11 11 11 11 11 11 11 11 11 11 11 10 10 10
12 12 12 12 11 11 11 12 12 10 9 10 10 9 9 9 9 10 10 10 10 10 10 10 10 10 10 10 10 10 10 10 10 10 10 10 10 10 10 10 11 11 10 10 10 10 10 10 10
11 11 11 11 11 10 10 11 11 10 9 10 10 9 9 9 9 9 9 10 10 10 10 10 10 10 10 9 9 9 9 9 10 10 10 10 10 10 10 10 10 10 10 10 10 10 10 10 10
10 10 11 11 10 9 10 11 11 10 9 9 9 9 8 8 8 8 9 9 9 9 10 9 10 9 9 9 9 9 9 9 9 9 9 9 10 10 10 10 10 10 10 10 10 9 9 9 9
9 10 10 10 9 9 9 10 11 10 9 8 8 8 8 8 7 8 8 9 9 9 9 9 9 9 9 9 9 9 9 9 9 9 9 9 9 9 9 9 9 9 9 9 9 9 9 9 9
9 9 9 9 9 9 9 11 11 10 8 8 7 7 7 7 7 7 7 8 8 8 9 9 9 9 9 9 9 9 8 8 8 8 9 9 9 9 9 9 9 9 9 9 9 9 9 9 8
9 8 8 8 8 10 9 10 11 10 9 8 7 7 6 6 6 6 6 7 7 8 8 8 8 8 8 8 8 8 8 8 8 8 8 8 8 8 8 8 8 8 8 8 8 8 8 8 8
8 7 7 7 8 8 9 9 10 9 8 8 7 6 5 5 5 5 5 6 7 7 8 8 8 8 8 8 8 8 8 8 8 8 8 8 8 8 8 8 8 8 8 8 8 8 8 8 8
6 7 7 7 8 8 9 9 9 8 7 7 6 5 4 4 4 4 5 5 6 6 7 7 7 7 7 8 8 8 8 7 7 8 8 7 7 7 7 7 7 7 7 7 7 8 8 8 8
6 7 8 8 8 9 8 7 7 6 5 5 5 4 4 3 3 3 4 5 5 5 6 6 6 7 7 7 7 7 7 7 7 7 7 7 7 7 7 7 7 7 7 7 7 7 7 7 7
6 6 7 7 8 9 7 7 6 5 4 3 3 3 3 2 2 3 3 4 4 5 5 5 6 6 6 7 7 7 7 6 7 7 7 7 7 7 7 7 7 7 7 7 7 7 7 7 7
5 6 6 6 6 6 7 6 5 4 4 3 2 2 2 2 1 2 2 3 3 4 4 4 5 5 6 6 6 6 6 6 6 6 6 6 6 6 6 6 6 6 6 6 7 7 7 7 7
4 5 5 5 5 6 7 6 5 3 3 3 2 2 1 1 1 1 2 2 2 3 3 4 4 4 5 5 5 5 5 5 6 6 6 6 6 6 6 6 6 6 6 6 6 6 6 6 6
3 3 4 5 5 5 5 5 3 3 2 2 2 1 0 0 0 0 1 1 2 2 3 3 3 4 4 4 4 5 5 5 5 5 5 5 5 5 5 5 5 5 5 6 6 6 6 6 6
3 3 3 3 4 4 4 4 2 2 2 1 1 0 -0 -0 -0 -0 -0 0 1 1 2 2 2 3 3 4 4 4 4 4 4 4 5 5 5 5 5 5 5 5 5 5 5 5 5 5 5

GEFSSGP_850_meantemp_240.txt.gz
Temperature
16 16 16 17 17 17 19 21 22 22 22 21 21 22 21 20 20 17 16 16 16 15 15 16 16 15 15 15 15 15 15 15 15 15 15 15 15 15 15 15 15 15 15 15 15 15 15 15 15
15 15 16 17 17 18 20 21 21 21 21 20 20 21 21 20 18 17 16 15 15 15 15 15 15 15 15 15 15 15 15 15 15 15 15 15 15 15 15 15 15 15 15 15 15 15 15 15 15
15 16 17 17 18 19 20 21 20 20 20 20 20 20 20 19 17 16 15 15 15 14 15 15 15 15 15 15 15 15 15 15 15 15 15 14 15 15 15 15 15 15 15 15 15 15 15 14 15
15 16 18 17 18 20 20 21 20 20 20 20 20 19 18 17 16 15 15 15 15 14 14 15 15 15 15 15 15 15 15 15 15 14 14 14 14 14 14 14 14 15 15 14 14 14 14 14 14
15 17 17 17 18 20 20 21 21 20 20 20 19 19 17 16 16 15 15 15 14 14 14 14 14 14 14 14 14 14 14 14 14 14 14 14 14 14 14 14 14 14 14 14 14 14 14 14 14
16 17 17 17 19 20 20 20 20 20 20 20 19 19 16 15 15 15 15 14 14 14 14 14 14 14 14 14 14 14 14 14 14 14 14 14 14 14 14 14 14 14 14 14 14 14 14 14 14
16 16 17 18 19 19 20 20 20 19 19 19 19 18 16 15 15 14 14 14 14 14 13 13 13 13 14 14 14 14 14 14 14 14 14 14 14 14 14 14 14 14 14 14 14 14 14 14 14
15 16 17 18 18 18 19 19 19 18 18 18 18 17 15 14 14 14 14 14 13 13 13 13 13 13 13 13 13 13 13 13 13 13 13 13 13 13 13 14 14 14 14 14 14 14 14 14 14
15 15 16 17 18 18 18 18 18 17 17 17 16 16 15 14 14 13 13 13 13 13 13 13 13 13 13 13 13 13 13 13 13 13 13 13 13 13 13 13 13 13 13 13 13 13 13 13 13
15 14 15 17 17 17 17 17 17 17 16 16 15 15 14 14 13 13 12 12 12 12 12 12 12 12 12 12 12 12 12 12 12 12 12 13 13 13 13 13 13 13 13 13 13 13 13 13 13
15 15 16 16 16 16 15 16 16 16 14 15 15 14 13 13 12 12 12 12 12 12 12 12 12 12 12 12 12 12 12 12 12 12 12 12 12 12 12 12 12 13 13 13 13 12 12 12 12
15 15 15 15 15 14 14 14 14 14 14 14 14 13 13 12 12 12 12 12 12 11 11 11 12 12 12 12 12 12 12 12 12 12 12 12 12 12 12 12 12 12 12 12 12 12 12 12 12
14 14 14 14 14 13 13 13 13 13 13 13 13 13 12 12 11 11 11 11 11 11 11 11 11 11 11 11 11 11 11 11 11 12 12 12 12 12 12 12 12 12 12 12 12 12 12 12 12
14 14 14 14 13 13 13 13 13 13 13 13 12 12 12 11 11 11 11 11 11 11 11 11 11 11 11 11 11 11 11 11 11 11 11 12 12 12 11 11 11 11 11 12 11 11 11 11 11
13 12 13 13 13 13 12 11 12 13 13 12 12 12 11 11 11 10 10 10 10 10 10 11 10 10 11 11 11 11 11 11 11 11 11 11 11 11 11 11 11 11 11 11 11 11 11 11 11
13 12 12 13 13 13 11 10 12 13 12 12 12 11 11 11 10 10 10 10 10 10 10 10 10 10 10 10 10 10 10 10 10 11 11 11 11 11 11 11 11 11 11 11 11 11 11 11 11
11 11 12 12 12 12 11 10 11 12 12 12 12 11 11 10 10 10 10 10 9 9 10 10 10 10 10 10 10 10 10 10 10 10 10 10 11 11 10 10 10 10 10 10 10 10 10 10 10
11 11 12 12 12 12 11 10 11 12 12 11 11 11 10 10 9 9 9 9 9 9 9 9 9 9 9 9 9 9 9 9 9 10 10 10 10 10 10 10 10 10 10 10 10 10 10 10 10
11 10 10 11 12 11 10 10 10 10 10 10 9 9 9 9 9 9 9 9 8 8 8 9 9 9 9 9 9 9 9 9 9 9 9 9 10 10 10 10 10 10 10 10 10 9 9 9 9
10 10 10 10 11 10 9 9 10 9 9 9 8 8 8 8 7 8 8 8 8 8 8 8 8 8 8 8 8 8 8 8 9 9 9 9 9 9 9 9 9 9 9 9 9 9 9 9 9
9 9 9 9 9 10 9 9 9 9 9 8 7 7 7 6 6 6 6 7 7 7 7 7 7 8 8 8 8 8 8 8 8 8 8 9 9 9 9 9 9 9 9 9 9 9 9 9 9
8 9 8 8 7 7 9 7 8 8 7 6 6 6 5 5 5 5 5 5 6 6 7 7 7 7 7 7 7 7 7 7 8 8 8 8 8 8 8 8 9 9 8 8 8 9 8 9 8
8 8 8 8 7 7 8 7 7 8 6 5 5 5 4 4 4 4 4 4 5 5 6 6 6 6 7 7 7 7 7 7 7 7 7 8 8 8 8 8 8 8 8 8 8 8 8 8 8
7 7 7 7 6 6 7 7 6 5 5 5 4 4 4 3 3 3 3 3 4 4 5 5 5 5 6 6 6 6 6 6 6 6 7 7 7 7 7 7 8 8 8 8 8 8 8 8 8
7 5 5 6 6 6 8 7 5 4 4 4 4 3 3 2 2 2 2 2 3 3 4 4 4 5 5 5 6 6 6 6 6 6 6 7 7 7 7 7 7 7 7 7 7 7 7 7 7
6 6 4 4 5 6 7 5 4 4 4 4 3 3 2 2 2 2 2 2 2 2 3 3 4 4 4 5 5 5 5 5 5 6 6 6 6 7 7 7 7 7 7 7 7 7 7 7 7
5 5 6 4 4 4 5 4 4 4 3 3 2 2 1 1 1 1 1 1 1 2 2 3 3 3 3 4 4 5 5 5 5 5 5 5 6 6 6 6 6 6 6 6 6 6 7 7 7
5 5 4 3 3 4 5 4 3 2 2 2 2 1 1 1 1 1 0 1 1 1 1 2 2 2 3 3 3 4 4 4 5 5 5 5 5 5 5 5 6 6 6 6 6 6 6 6 6
4 4 3 3 4 3 3 3 3 2 2 1 1 1 0 0 0 -0 -0 -0 -0 0 1 1 1 2 2 2 3 3 3 4 4 4 4 4 5 5 5 5 5 5 5 5 5 5 5 5 6
4 3 3 2 2 3 2 1 2 1 1 1 0 -0 -0 -1 -1 -1 -1 -1 -1 -1 -0 0 1 1 1 2 2 2 2 3 3 3 4 4 4 4 4 4 4 4 5 5 5 5 5 5 5

GEFSSGP_850_meantemp_246.txt.gz
Temperature
15 16 16 17 13 11 14 15 16 17 17 18 18 18 16 16 16 16 15 15 15 15 15 15 15 15 15 15 15 15 15 15 15 15 15 15 15 15 15 15 15 15 15 15 15 15 15 15 15
15 16 16 16 11 12 14 14 16 16 18 18 18 18 16 15 15 15 15 15 15 15 15 15 15 15 15 15 15 15 15 15 15 15 15 15 15 15 15 15 15 15 15 15 15 15 15 15 14
15 16 16 11 12 13 15 15 15 17 18 18 17 17 16 15 15 15 15 15 15 15 15 15 15 15 15 15 15 15 15 15 15 15 15 15 15 15 15 15 14 14 14 15 15 14 14 14 14
16 16 15 11 13 14 15 15 16 17 18 18 17 15 15 15 15 15 15 15 15 15 14 14 14 15 15 15 15 15 15 15 15 15 15 14 14 15 14 14 14 14 14 14 14 14 14 14 14
15 15 12 12 13 14 14 15 16 15 16 17 17 15 14 14 15 15 15 15 15 14 14 14 14 14 14 14 14 15 15 15 15 14 14 14 14 14 14 14 14 14 14 14 14 14 14 14 14
15 12 11 12 13 14 14 16 16 15 15 16 16 14 14 14 14 14 14 14 14 14 14 14 14 14 14 14 14 14 14 14 14 14 14 14 14 14 14 14 14 14 14 14 14 14 14 14 14
14 10 11 13 13 14 15 16 15 14 14 15 16 14 13 13 14 14 14 14 14 14 14 13 13 13 13 14 14 14 14 14 14 13 14 14 14 14 14 14 14 14 14 14 14 14 13 13 14
14 10 12 12 13 14 14 15 15 15 14 15 15 13 12 13 13 13 13 13 13 13 13 13 13 13 13 13 13 13 13 13 13 13 13 13 13 13 13 14 14 14 14 14 13 13 13 13 13
14 10 11 12 13 13 13 14 14 14 14 14 13 13 13 13 13 13 13 13 13 13 13 13 13 13 13 13 13 13 13 13 13 13 13 13 13 13 13 13 13 13 13 13 13 13 13 13 13
13 9 11 12 12 12 12 13 13 13 12 12 12 13 13 13 13 13 13 13 12 12 12 12 12 12 12 12 12 12 12 12 12 12 12 12 12 12 13 13 13 13 13 13 13 13 13 13 13
12 10 11 12 13 13 12 12 12 12 11 11 11 12 12 12 12 12 12 12 12 12 12 12 12 12 12 12 12 12 12 12 12 12 12 12 12 12 12 12 12 12 13 13 13 12 13 13 13
11 11 11 12 12 12 12 11 11 11 11 11 12 12 11 11 11 11 12 12 12 11 11 11 11 11 11 11 12 12 12 12 12 12 12 12 12 12 12 12 12 12 12 12 12 12 12 12 12
10 10 11 11 11 11 11 11 10 10 11 11 11 11 11 10 11 11 11 11 11 11 11 11 11 11 11 11 11 11 11 11 11 11 11 11 12 12 12 12 12 12 12 12 12 12 12 12 12
10 10 10 11 11 11 10 10 10 10 10 10 10 10 10 10 10 10 10 10 10 10 11 11 11 11 11 11 11 11 11 11 11 11 11 11 11 11 11 11 11 11 11 11 11 11 11 11 12
10 9 9 10 10 10 10 9 8 9 10 9 9 9 9 9 9 9 9 10 10 10 10 10 10 10 10 10 10 10 10 11 11 11 11 11 11 11 11 11 11 11 11 11 11 11 11 11 11
9 8 8 9 9 9 9 8 8 9 9 8 8 8 8 8 8 8 9 9 9 9 10 10 10 10 10 10 10 10 10 10 10 10 10 10 10 10 11 11 11 10 10 10 10 10 10 11 11
7 7 8 8 9 8 8 7 7 8 7 7 7 6 6 7 7 8 8 8 9 9 9 9 9 9 9 10 10 10 10 10 10 10 10 10 10 10 10 10 10 10 10 10 10 10 10 10 10
7 7 7 7 8 8 7 6 6 6 6 5 5 5 5 5 6 6 7 8 8 8 8 8 9 9 9 9 9 9 9 9 9 9 9 9 9 9 10 10 10 10 10 10 10 10 9 9 10
7 7 6 7 7 7 6 5 5 5 4 4 4 4 4 4 5 6 6 7 7 8 8 8 8 8 8 8 9 9 9 9 9 9 9 9 9 9 9 9 9 9 9 9 9 9 9 9 9
7 6 6 6 6 6 5 5 4 4 3 3 3 3 3 3 4 5 5 6 6 7 7 7 7 7 7 7 8 8 8 8 8 8 8 8 8 8 8 9 9 9 9 9 9 9 9 9 9
6 6 5 5 5 5 5 4 3 3 3 3 2 2 2 2 3 3 4 4 5 5 6 6 6 6 6 7 7 7 7 8 8 8 8 8 8 8 8 8 8 8 9 9 9 9 9 9 8
5 6 6 5 4 3 5 3 3 3 2 2 1 1 1 1 2 2 3 3 4 4 5 5 5 5 6 6 6 6 6 7 7 7 7 7 7 7 7 7 8 8 8 8 8 8 8 8 8
5 5 5 5 4 3 3 3 2 2 2 1 1 1 1 1 1 1 2 2 3 3 4 4 5 5 5 5 5 5 6 6 6 6 6 7 7 7 7 7 7 7 8 8 8 8 8 8 8
5 4 4 3 2 3 3 3 2 1 1 1 0 0 0 0 0 1 1 2 2 3 3 4 4 4 4 4 5 5 5 5 5 6 6 6 6 6 6 6 7 7 7 7 7 7 7 8 8
4 2 2 2 2 3 3 2 1 1 1 1 0 -0 -0 -0 -0 -0 0 1 1 2 2 3 3 3 4 4 4 4 4 4 5 5 5 5 5 6 6 6 6 6 7 7 7 7 7 7 7
3 3 2 2 2 2 2 1 0 0 0 0 -0 -0 -1 -1 -1 -1 -1 -0 0 1 1 2 2 2 3 3 3 3 4 4 4 5 5 5 5 5 6 6 6 6 6 6 6 6 7 6 7
3 2 2 1 1 0 1 1 0 0 -0 -1 -1 -1 -1 -1 -1 -1 -1 -1 -0 -0 0 0 1 2 2 2 3 3 3 3 4 4 4 4 4 5 5 5 5 5 5 5 6 6 6 6 6
3 2 0 1 1 1 1 0 -0 -1 -2 -2 -2 -2 -2 -2 -2 -2 -2 -2 -1 -1 -0 -0 0 1 1 1 2 2 3 3 3 3 4 4 4 4 4 4 5 5 5 5 5 5 5 5 6
2 2 1 -0 -0 -0 -0 -0 -1 -2 -2 -3 -3 -3 -3 -3 -3 -2 -2 -2 -2 -2 -1 -1 -1 -0 0 1 1 2 2 2 3 3 3 3 3 4 4 4 4 4 4 4 4 5 5 5 5
1 1 -0 -1 -1 -1 -1 -1 -1 -2 -2 -3 -3 -3 -3 -3 -3 -3 -3 -3 -3 -2 -2 -2 -2 -1 -1 -0 0 1 1 2 2 2 3 3 3 3 3 4 4 4 4 4 4 4 4 4 4

GEFSSGP_850_meantemp_252.txt.gz
Temperature
15 15 16 17 13 10 13 14 14 14 14 15 15 15 14 14 15 15 15 15 15 15 15 14 14 15 15 15 15 15 15 15 15 15 15 15 15 15 15 15 15 15 15 15 15 15 15 15 15
15 16 16 16 11 12 13 13 13 14 15 15 15 15 14 14 14 14 15 15 14 15 14 14 14 14 14 15 15 15 15 15 15 15 15 15 15 15 14 14 14 14 14 14 15 15 14 15 15
15 16 16 10 11 12 14 14 13 14 15 15 14 14 14 14 14 14 14 14 14 14 14 14 14 14 14 14 15 15 15 14 15 15 15 14 14 14 14 14 14 14 14 14 14 14 14 14 14
15 16 14 10 12 12 13 13 13 13 15 15 14 13 13 13 13 14 14 14 14 14 14 14 14 14 14 14 14 14 14 14 14 14 14 14 14 14 14 14 14 14 14 14 14 14 14 14 14
15 15 11 11 12 12 11 12 13 13 13 13 13 12 13 13 13 14 14 14 14 14 13 13 13 13 14 14 14 14 14 14 14 14 14 14 14 14 14 14 14 14 14 14 14 14 14 14 14
15 11 10 11 12 12 11 12 13 12 12 13 12 12 12 13 13 13 13 13 13 13 13 13 13 13 13 13 13 14 14 14 14 13 13 14 14 14 14 14 14 13 13 13 14 14 14 14 14
13 9 10 11 11 12 11 12 12 11 11 12 12 11 12 13 13 13 13 13 13 13 13 13 13 13 13 13 13 13 13 13 13 13 13 13 13 13 13 13 13 13 13 13 13 13 13 13 13
14 9 10 10 11 11 11 12 12 11 11 12 12 10 10 11 12 12 12 12 12 12 12 12 12 12 12 12 13 13 13 13 13 13 13 13 13 13 13 13 13 13 13 13 13 13 13 13 13
13 9 10 10 10 11 11 11 11 11 11 10 10 10 10 11 11 11 12 12 12 12 12 12 12 12 12 12 12 12 12 12 12 12 12 12 12 13 13 13 13 13 13 13 13 13 13 13 13
11 8 10 10 10 10 10 10 10 10 9 9 10 10 10 11 11 11 11 11 11 11 11 11 12 12 12 12 12 12 12 12 12 12 12 12 12 12 12 12 12 12 13 13 13 13 13 13 13
10 9 9 10 10 10 10 9 9 9 8 8 8 9 10 10 10 10 10 10 10 11 11 11 11 11 11 11 11 11 11 11 11 12 12 12 12 12 12 12 12 12 12 12 12 12 12 12 12
9 9 9 9 10 10 9 9 8 8 8 8 8 8 9 9 9 9 9 10 10 10 10 11 11 11 11 11 11 11 11 11 11 11 11 11 11 11 11 12 12 12 12 12 12 12 12 12 12
8 8 9 9 9 9 8 7 7 7 7 7 8 8 8 8 8 8 8 9 9 10 10 10 10 11 11 11 11 11 11 11 11 11 11 11 11 11 11 11 11 11 11 11 11 12 12 12 12
8 8 8 8 8 8 7 7 6 6 7 7 7 6 6 7 7 7 8 8 9 9 9 9 10 10 10 10 10 10 10 11 11 11 10 11 11 11 11 11 11 11 11 11 11 11 11 11 11
8 7 7 7 8 8 7 6 5 5 6 6 5 5 5 5 6 6 7 7 8 8 8 9 9 9 10 10 10 10 10 10 10 10 10 10 10 10 10 10 10 10 10 10 11 11 11 11 11
7 7 6 7 6 7 7 6 5 5 5 4 4 4 4 5 5 5 6 6 7 7 8 8 8 9 9 9 9 10 10 10 10 10 10 10 10 10 10 10 10 10 10 10 10 10 10 10 10
5 5 6 6 6 6 5 5 4 4 4 3 3 3 3 4 4 4 5 5 6 6 7 7 8 8 8 9 9 9 9 9 9 9 9 9 9 9 9 9 9 9 9 9 9 9 10 10 10
5 5 5 5 5 5 4 3 3 3 2 2 2 2 2 2 3 3 4 5 5 6 6 6 7 7 8 8 8 8 9 9 9 9 9 9 9 9 9 9 9 9 9 9 9 9 9 9 9
5 5 5 5 5 4 3 3 2 2 1 1 1 1 1 1 2 3 3 4 4 5 5 6 6 7 7 7 7 8 8 8 8 8 8 8 8 8 8 8 8 8 8 8 8 8 8 9 9
5 5 4 4 4 4 2 2 2 1 1 0 -0 -0 -0 1 2 2 2 3 4 4 4 5 5 6 6 6 6 7 7 7 7 8 8 7 8 8 8 8 8 8 8 8 8 8 8 8 8
5 4 4 4 3 3 3 2 1 1 0 -0 -0 -1 -1 -0 0 1 1 2 2 3 3 4 4 5 5 5 5 6 6 7 7 7 7 7 7 7 7 7 7 7 7 7 7 7 7 7 8
4 4 4 4 3 2 2 2 1 0 -0 -0 -1 -1 -1 -1 -1 -0 0 1 1 2 2 3 3 4 4 5 5 5 5 5 6 6 6 6 6 6 6 6 7 7 7 7 7 7 7 7 7
4 4 3 3 2 1 1 1 1 -0 -0 -1 -1 -1 -1 -1 -1 -1 -1 -0 0 1 2 2 2 3 3 4 4 4 4 4 5 5 5 6 6 6 6 6 6 6 6 6 6 6 6 7 7
3 2 2 1 1 2 1 0 1 -1 -1 -1 -1 -2 -2 -2 -1 -1 -1 -1 -0 0 1 1 2 2 3 3 3 3 3 3 4 4 5 5 5 5 5 5 5 6 6 6 6 6 6 6 6
2 2 1 1 1 1 1 0 -0 -1 -1 -1 -2 -2 -2 -2 -2 -2 -1 -1 -1 -0 0 1 1 2 2 2 3 3 3 3 3 3 3 4 4 5 5 5 5 5 5 5 5 5 5 6 6
2 2 2 2 1 0 0 -0 -1 -1 -1 -2 -2 -2 -2 -2 -2 -2 -2 -2 -2 -1 -1 -0 0 1 1 1 2 2 2 2 2 2 3 3 3 4 4 4 4 4 4 5 5 5 5 5 5
2 1 1 -0 -1 -1 -1 -1 -2 -2 -2 -2 -3 -3 -3 -3 -3 -3 -3 -2 -2 -2 -1 -1 -1 -0 0 1 1 1 1 1 2 2 2 2 3 3 3 4 4 4 4 4 4 4 4 5 5
1 -0 -1 -0 -0 -0 -1 -1 -1 -2 -3 -3 -4 -4 -3 -3 -3 -3 -3 -3 -3 -2 -2 -2 -1 -1 -1 -0 -0 0 1 1 1 1 2 2 2 2 3 3 3 3 3 3 3 4 4 4 4
0 0 -1 -2 -1 -1 -1 -1 -2 -3 -3 -4 -4 -4 -4 -4 -4 -4 -3 -3 -3 -3 -3 -2 -2 -2 -1 -1 -1 -0 -0 0 0 1 1 1 2 2 2 2 2 2 3 3 3 3 3 3 4
0 -1 -1 -1 -2 -3 -3 -2 -2 -4 -4 -4 -4 -4 -4 -4 -4 -4 -4 -4 -3 -3 -3 -3 -3 -2 -2 -2 -2 -1 -1 -0 -0 0 1 1 1 1 1 2 2 2 2 2 2 2 3 3 3

GEFSSGP_850_meantemp_258.txt.gz
Temperature
16 16 17 17 20 21 21 20 19 19 19 17 17 18 19 19 19 17 13 13 13 13 13 14 14 14 14 14 14 15 15 15 15 15 15 15 15 15 15 15 14 15 15 15 15 15 15 15 15
15 16 17 18 21 21 20 20 19 18 17 16 16 17 17 16 13 13 12 13 13 13 13 13 14 14 14 14 14 14 14 14 15 15 15 15 15 14 14 14 14 14 14 15 14 14 15 15 15
16 16 17 20 20 21 20 19 18 17 16 16 16 15 15 13 12 12 12 13 13 13 13 13 13 13 14 14 14 14 14 14 14 14 14 14 14 14 14 14 14 14 14 14 14 14 14 14 14
16 16 17 20 19 18 18 18 17 17 16 15 15 15 12 11 11 11 12 12 12 13 13 13 13 13 13 13 14 14 14 14 14 14 14 14 14 14 14 14 14 14 14 14 14 14 14 14 14
16 17 19 19 18 17 17 15 16 17 16 15 15 15 13 11 11 11 12 12 12 12 13 13 13 13 13 13 13 13 13 13 13 14 14 14 14 14 14 14 14 14 14 14 14 14 14 14 14
16 18 19 19 18 17 16 14 15 16 15 14 14 14 12 10 11 11 11 12 12 12 12 12 12 13 13 13 13 13 13 13 13 13 13 13 13 14 14 14 14 14 14 14 14 14 14 14 14
16 18 18 18 17 16 15 14 14 15 15 13 12 14 12 10 10 11 11 11 11 12 12 12 12 12 12 12 12 12 12 12 13 13 13 13 13 13 13 13 13 13 13 13 13 14 14 14 14
14 17 16 16 16 15 14 13 12 13 13 10 10 12 11 9 10 10 11 11 11 11 11 11 12 12 12 12 12 12 12 12 12 12 12 12 13 13 13 13 13 13 13 13 13 13 13 13 13
13 16 16 16 15 14 13 13 11 10 10 9 8 8 8 9 9 10 10 10 11 11 11 11 11 11 11 11 12 12 12 12 12 12 12 12 12 12 12 12 12 12 13 13 13 13 13 13 13
14 15 14 13 14 13 12 11 11 11 10 9 8 7 8 8 9 9 10 10 10 10 11 11 11 11 11 11 11 11 11 11 11 11 11 11 12 12 12 12 12 12 12 12 12 12 12 12 12
13 13 12 11 11 11 11 10 9 11 10 8 7 7 7 8 8 8 9 9 9 9 10 10 10 10 10 10 11 11 11 11 11 11 11 11 11 11 11 12 12 12 12 12 12 12 12 12 12
12 11 11 10 9 9 10 9 8 8 7 6 6 6 6 7 7 8 8 8 8 9 9 9 10 10 10 10 10 10 10 11 11 11 11 11 11 11 11 11 11 11 11 11 11 11 11 12 11
11 10 9 8 8 8 8 8 7 6 5 5 5 5 6 6 6 6 7 7 8 8 8 9 9 9 9 10 10 10 10 10 10 10 11 10 11 11 11 11 11 11 11 11 11 11 11 11 11
10 9 9 8 8 8 8 7 7 5 5 5 4 4 4 5 5 6 6 6 7 7 7 8 8 9 9 9 9 9 9 10 10 10 10 10 10 10 10 10 10 10 11 11 10 10 11 11 11
9 10 10 9 8 8 8 8 6 4 4 4 4 3 3 4 4 4 5 5 6 6 6 7 7 8 8 8 9 9 9 9 9 9 10 10 10 10 10 10 10 10 10 10 10 10 10 10 10
10 11 11 9 8 8 9 9 6 4 4 4 3 3 3 3 3 3 4 5 5 5 6 6 6 7 7 8 8 8 8 8 9 9 9 9 9 9 9 9 9 10 10 10 10 10 10 10 10
11 11 11 9 8 8 9 8 6 4 4 4 3 2 2 2 2 2 3 4 4 5 5 5 6 6 7 7 7 7 8 8 8 8 8 9 9 9 9 9 9 9 9 9 9 9 9 9 9
11 11 10 10 8 8 8 7 5 3 3 3 2 2 2 1 1 2 2 3 3 4 4 5 5 6 6 6 7 7 7 7 7 8 8 8 8 8 8 8 8 8 8 8 8 8 9 9 9
9 10 9 9 7 7 7 6 5 3 3 3 2 1 1 1 1 1 2 2 3 3 4 4 4 5 5 6 6 6 6 6 7 7 7 8 8 8 8 8 8 8 8 8 8 8 8 8 8
9 9 9 7 6 7 6 6 5 3 2 2 1 1 0 0 0 1 1 1 2 2 3 3 3 4 4 4 5 5 5 5 6 6 7 7 7 7 7 7 7 7 7 7 7 7 7 7 7
8 8 8 7 6 6 6 7 5 3 2 1 1 0 0 -0 -0 -0 -0 0 1 1 2 2 2 3 3 3 4 4 4 5 5 6 6 6 6 6 6 7 7 6 6 6 7 7 7 7 7
8 7 6 6 7 8 6 8 7 4 3 2 1 0 -0 -1 -1 -1 -1 -0 -0 0 1 1 2 2 2 3 3 3 3 4 4 5 5 5 5 6 6 6 6 6 6 6 6 6 6 6 6
6 5 6 6 7 7 6 6 8 4 3 3 1 0 -1 -1 -1 -1 -1 -1 -1 -0 0 1 1 1 2 2 2 2 3 3 3 4 4 5 5 5 5 5 5 5 5 5 5 5 5 5 5
5 5 5 5 6 6 6 6 8 5 3 3 1 0 -1 -2 -2 -2 -2 -1 -1 -1 -1 -0 0 1 1 1 1 2 2 2 2 3 3 4 4 4 4 4 4 4 4 4 5 5 5 5 5
5 7 7 7 7 7 5 5 6 3 2 2 1 -1 -1 -2 -2 -2 -2 -2 -2 -1 -1 -1 -0 -0 0 0 1 1 1 1 2 2 2 2 3 3 3 3 3 4 4 4 4 4 4 4 4
5 6 6 7 7 7 4 5 5 2 0 -0 -1 -1 -2 -2 -2 -3 -3 -2 -2 -2 -2 -2 -1 -1 -1 -0 -0 0 0 0 1 1 1 2 2 2 2 2 3 3 3 3 3 3 4 4 4
5 5 5 5 4 4 6 5 3 1 0 -0 -1 -2 -2 -3 -3 -3 -3 -3 -3 -2 -2 -2 -2 -2 -1 -1 -1 -1 -1 -0 -0 0 1 1 1 1 2 2 2 2 2 3 3 3 3 3 3
4 4 4 4 4 5 6 5 5 1 0 -0 -1 -2 -3 -3 -3 -3 -3 -3 -3 -3 -3 -3 -3 -2 -2 -2 -2 -2 -1 -1 -1 -0 0 0 0 0 1 1 1 2 2 2 2 2 2 2 3
3 3 4 4 4 4 5 5 2 1 0 -1 -1 -2 -3 -4 -4 -4 -4 -4 -3 -3 -3 -3 -3 -3 -3 -2 -2 -2 -2 -1 -1 -1 -1 -0 -0 -0 0 0 1 1 1 1 1 1 1 2 2
3 3 3 4 3 3 3 4 0 -0 -1 -2 -2 -3 -4 -4 -4 -4 -4 -4 -4 -4 -4 -4 -4 -3 -3 -3 -3 -3 -2 -2 -2 -2 -1 -1 -1 -1 -0 -0 0 0 1 1 1 1 1 1 1

GEFSSGP_850_meantemp_264.txt.gz
Temperature
17 17 17 18 18 18 19 21 22 21 20 20 19 19 17 16 16 14 12 12 13 13 13 14 14 14 14 14 14 14 14 14 14 14 15 15 15 15 15 15 15 15 15 15 15 15 15 15 15
17 17 17 18 18 18 19 20 20 19 19 19 19 18 17 15 13 12 12 12 12 12 13 13 14 14 14 14 14 14 14 14 14 14 14 14 14 14 14 14 14 14 14 14 14 15 15 15 15
17 17 18 18 19 19 20 19 19 19 19 18 17 16 15 13 12 12 11 12 12 12 12 13 13 13 14 14 14 14 14 14 14 14 14 14 14 14 14 14 14 14 14 14 14 15 15 15 15
16 17 19 18 19 19 19 19 19 19 19 18 17 15 12 11 11 11 11 11 11 12 12 12 13 13 13 13 13 13 13 13 13 14 14 14 14 14 14 14 14 14 14 14 14 14 14 14 14
17 18 18 18 18 19 19 19 19 18 18 17 16 14 11 11 11 11 11 11 11 11 12 12 12 13 13 13 13 13 13 13 13 13 13 13 13 13 14 14 14 14 14 14 14 14 14 14 14
17 18 18 18 18 18 18 18 18 17 16 16 15 14 11 10 11 11 11 11 11 11 11 12 12 12 12 12 12 13 13 13 13 13 13 13 13 13 13 13 13 13 13 13 14 14 14 14 14
17 17 17 18 18 17 17 17 17 16 15 14 14 13 11 10 10 10 10 10 10 11 11 11 11 11 12 12 12 12 12 12 12 12 13 13 12 12 13 13 13 13 13 13 13 13 14 14 14
16 16 18 17 17 16 16 16 15 14 13 12 12 11 10 9 9 10 10 10 10 10 10 11 11 11 11 11 12 12 12 12 12 12 12 12 12 12 12 12 12 12 13 13 13 13 13 13 13
16 15 16 17 16 15 15 14 13 13 12 11 10 9 9 9 9 9 9 10 10 10 10 10 10 11 11 11 11 11 11 11 12 12 12 12 12 12 12 12 12 12 12 12 12 13 13 13 13
16 14 15 15 15 14 14 13 13 12 11 10 9 8 8 8 8 9 9 9 9 9 9 9 10 10 10 10 10 11 11 11 11 11 11 11 11 11 12 12 12 12 12 12 12 12 12 12 12
15 14 14 14 14 13 13 12 11 12 10 9 8 7 7 7 8 8 8 8 8 8 8 9 9 9 10 10 10 10 10 10 11 11 11 11 11 11 11 11 11 12 12 12 12 12 12 12 12
14 13 13 12 12 12 11 11 10 9 8 8 7 7 6 6 7 7 7 7 7 7 8 8 8 8 9 9 9 9 10 10 10 10 10 10 10 10 11 11 11 11 11 11 11 11 11 11 11
13 12 12 11 11 11 10 10 9 8 7 7 7 6 6 6 6 6 6 6 7 7 7 7 7 8 8 8 9 9 9 9 9 9 10 10 10 10 10 10 10 10 10 10 10 10 11 11 11
12 12 11 11 10 10 9 9 8 7 7 6 6 5 5 5 5 5 5 6 6 6 6 7 7 7 7 8 8 8 9 9 9 9 9 9 9 9 10 10 10 10 10 10 10 10 10 10 10
12 11 11 11 11 10 9 8 8 7 7 6 6 5 4 4 4 4 4 4 5 5 6 6 6 6 7 7 7 8 8 8 8 8 8 9 9 9 9 9 9 9 9 9 9 10 10 10 10
12 11 10 11 11 10 10 8 8 7 7 6 5 5 4 3 3 3 3 4 4 5 5 5 5 6 6 6 6 7 7 7 8 8 8 8 8 8 9 9 9 9 9 9 9 9 9 9 10
11 11 11 10 11 10 9 8 7 7 6 6 5 4 3 3 3 3 3 3 3 4 4 5 5 5 5 5 6 6 6 6 7 7 7 8 8 8 8 8 8 8 9 9 9 9 9 9 9
10 11 12 10 10 10 8 8 7 6 6 6 5 4 3 3 2 2 2 2 3 3 3 4 4 4 4 5 5 5 5 6 6 6 7 7 7 7 8 8 8 8 8 8 8 8 8 8 8
11 11 11 10 9 9 8 8 7 6 6 5 4 4 3 2 2 2 2 2 2 3 3 3 3 3 4 4 4 4 5 5 5 5 6 6 6 7 7 7 7 7 7 7 7 7 7 8 7
10 10 10 9 9 9 8 7 7 6 5 5 4 3 2 2 1 1 1 1 2 2 2 2 2 3 3 3 3 3 3 4 4 4 5 5 6 6 6 6 6 7 7 7 7 7 7 7 7
10 9 9 8 8 8 7 7 6 5 5 4 4 3 2 2 1 1 1 1 1 1 1 1 2 2 2 2 3 3 3 3 4 4 4 4 5 5 5 5 6 6 6 6 6 6 6 6 6
8 8 8 8 6 6 7 5 6 5 4 4 4 3 2 1 1 0 -0 -0 0 0 1 1 1 1 1 2 2 2 2 2 2 3 3 3 4 4 4 4 5 5 5 5 5 5 5 5 5
7 7 7 7 7 6 7 5 5 5 4 3 3 2 2 1 -0 -0 -1 -1 -1 -0 -0 0 0 0 1 1 1 1 1 1 2 2 2 3 3 3 3 4 4 4 4 4 4 4 4 4 4
7 7 7 7 6 5 6 5 5 4 4 3 3 2 1 0 -1 -1 -1 -1 -1 -1 -1 -1 -0 -0 0 0 0 0 0 1 1 1 1 2 2 2 2 3 3 3 3 3 4 4 4 4 4
6 5 5 5 5 5 6 6 4 4 4 3 2 2 1 -0 -1 -1 -1 -1 -1 -1 -1 -1 -1 -1 -1 -0 -0 -0 -0 -0 -0 0 0 1 1 2 2 2 2 2 2 3 3 3 3 3 3
6 6 5 5 5 5 5 4 3 3 3 2 2 1 0 -1 -1 -2 -2 -2 -2 -2 -2 -2 -2 -1 -1 -1 -1 -1 -1 -1 -1 -1 -0 -0 0 1 1 1 1 2 2 2 2 2 2 2 3
6 5 5 4 4 4 4 4 2 2 1 1 1 0 -0 -1 -2 -2 -2 -2 -2 -2 -2 -2 -2 -2 -2 -2 -2 -2 -2 -2 -1 -1 -1 -1 -1 -0 0 0 1 1 1 1 1 1 2 2 2
5 5 4 4 3 4 5 5 3 0 0 0 0 -0 -1 -1 -2 -2 -2 -3 -3 -3 -3 -3 -3 -3 -3 -3 -3 -3 -2 -2 -2 -2 -2 -2 -1 -1 -1 -0 0 0 0 1 1 1 1 1 1
4 4 4 4 4 3 3 3 2 1 0 -0 -0 -1 -1 -2 -2 -3 -3 -3 -3 -3 -3 -3 -3 -3 -3 -3 -3 -3 -3 -3 -3 -3 -2 -2 -2 -2 -1 -1 -1 -0 -0 -0 0 0 0 0 1
4 4 3 2 2 3 2 2 1 1 1 0 -0 -1 -1 -2 -3 -3 -3 -3 -4 -4 -4 -4 -4 -4 -4 -4 -4 -4 -4 -4 -4 -3 -3 -3 -3 -2 -2 -2 -1 -1 -1 -1 -1 -0 -0 -0 0